Time,TemperatureF,DewpointF,PressureIn,WindDirection,WindDirectionDegrees,WindSpeedMPH,WindSpeedGustMPH,Humidity,HourlyPrecipIn,Conditions,Clouds,dailyrainin,SoftwareType,DateUTC
2013-01-19 00:00:00,42.8,25.5,30.21,SSW,203,10.8,11.3,50,0.00,,OVC004,0.00,VWS V14.01,2013-01-19 06:00:00,
2013-01-19 00:02:00,42.6,25.4,30.21,South,184,6.7,11.3,50,0.00,,OVC004,0.00,VWS V14.01,2013-01-19 06:02:00,
2013-01-19 00:04:00,42.6,25.4,30.21,SSW,201,6.1,10.5,50,0.00,,CLR,0.00,VWS V14.01,2013-01-19 06:04:00,
2013-01-19 00:06:00,42.4,25.2,30.21,SSW,192,7.8,8.1,50,0.00,,OVC004,0.00,VWS V14.01,2013-01-19 06:06:00,
2013-01-19 00:08:00,42.4,25.2,30.21,South,170,6.1,11.3,50,0.00,,OVC004,0.00,VWS V14.01,2013-01-19 06:08:00,
2013-01-19 00:09:00,42.4,25.2,30.21,SSW,197,7.8,8.1,50,0.00,,CLR,0.00,VWS V14.01,2013-01-19 06:09:00,
2013-01-19 00:10:00,42.4,25.2,30.21,SSW,205,7.2,10.5,50,0.00,,OVC004,0.00,VWS V14.01,2013-01-19 06:10:00,
2013-01-19 00:12:00,42.4,25.2,30.21,SW,222,3.9,10.8,50,0.00,,OVC004,0.00,VWS V14.01,2013-01-19 06:12:00,
2013-01-19 00:14:00,42.3,25.0,30.21,SW,219,9.4,9.9,50,0.00,,CLR,0.00,VWS V14.01,2013-01-19 06:14:00,
2013-01-19 00:16:00,42.3,25.0,30.21,SSW,200,7.8,9.9,50,0.00,,OVC004,0.00,VWS V14.01,2013-01-19 06:16:00,
2013-01-19 00:18:00,42.3,25.0,30.21,South,190,7.8,10.8,50,0.00,,OVC004,0.00,VWS V14.01,2013-01-19 06:18:00,
2013-01-19 00:19:00,42.3,25.0,30.21,South,187,10.8,11.3,50,0.00,,CLR,0.00,VWS V14.01,2013-01-19 06:19:00,
2013-01-19 00:20:00,42.3,25.0,30.21,SSW,211,9.4,11.3,50,0.00,,OVC004,0.00,VWS V14.01,2013-01-19 06:20:00,
2013-01-19 00:22:00,42.1,24.9,30.21,SSW,210,7.2,9.9,50,0.00,,OVC004,0.00,VWS V14.01,2013-01-19 06:22:00,
2013-01-19 00:24:00,42.1,24.9,30.21,SSE,167,6.7,10.8,50,0.00,,CLR,0.00,VWS V14.01,2013-01-19 06:24:00,
2013-01-19 00:26:00,42.1,24.9,30.21,SSW,198,9.4,10.8,50,0.00,,OVC004,0.00,VWS V14.01,2013-01-19 06:26:00,
2013-01-19 00:28:00,42.1,24.9,30.21,South,190,7.2,9.9,50,0.00,,OVC004,0.00,VWS V14.01,2013-01-19 06:28:00,
2013-01-19 00:29:00,42.1,24.9,30.21,SSW,192,6.7,8.1,50,0.00,,CLR,0.00,VWS V14.01,2013-01-19 06:29:00,
2013-01-19 00:30:00,42.1,24.9,30.21,SSW,205,10.0,10.5,50,0.00,,OVC004,0.00,VWS V14.01,2013-01-19 06:30:00,
2013-01-19 00:32:00,41.9,24.7,30.21,SW,220,5.0,10.5,50,0.00,,OVC004,0.00,VWS V14.01,2013-01-19 06:32:00,
2013-01-19 00:34:00,41.9,24.7,30.21,South,186,6.7,8.1,50,0.00,,CLR,0.00,VWS V14.01,2013-01-19 06:34:00,
2013-01-19 00:36:00,41.9,24.7,30.21,SSW,207,6.7,9.3,50,0.00,,OVC004,0.00,VWS V14.01,2013-01-19 06:36:00,
2013-01-19 00:38:00,41.9,24.7,30.21,SSW,213,4.4,7.6,50,0.00,,OVC004,0.00,VWS V14.01,2013-01-19 06:38:00,
2013-01-19 00:39:00,41.9,24.7,30.18,South,171,7.8,8.1,50,0.00,,CLR,0.00,VWS V14.01,2013-01-19 06:39:00,
2013-01-19 00:40:00,41.9,24.7,30.18,SSW,203,3.9,8.1,50,0.00,,OVC004,0.00,VWS V14.01,2013-01-19 06:40:00,
2013-01-19 00:42:00,41.9,24.7,30.18,SSW,202,7.8,8.7,50,0.00,,OVC004,0.00,VWS V14.01,2013-01-19 06:42:00,
2013-01-19 00:44:00,41.7,24.5,30.18,SSW,194,3.9,10.5,50,0.00,,CLR,0.00,VWS V14.01,2013-01-19 06:44:00,
2013-01-19 00:46:00,41.7,25.2,30.18,SSW,193,8.3,10.8,51,0.00,,OVC004,0.00,VWS V14.01,2013-01-19 06:46:00,
2013-01-19 00:48:00,41.7,25.2,30.18,SSW,205,6.7,8.7,51,0.00,,OVC004,0.00,VWS V14.01,2013-01-19 06:48:00,
2013-01-19 00:49:00,41.7,25.2,30.18,SSE,166,5.0,8.1,51,0.00,,CLR,0.00,VWS V14.01,2013-01-19 06:49:00,
2013-01-19 00:50:00,41.7,25.2,30.18,South,189,5.0,8.1,51,0.00,,OVC004,0.00,VWS V14.01,2013-01-19 06:50:00,
2013-01-19 00:52:00,41.7,25.2,30.18,SSW,207,5.0,8.1,51,0.00,,OVC004,0.00,VWS V14.01,2013-01-19 06:52:00,
2013-01-19 00:54:00,41.7,25.2,30.18,SW,222,5.0,8.1,51,0.00,,CLR,0.00,VWS V14.01,2013-01-19 06:54:00,
2013-01-19 00:56:00,41.5,25.0,30.18,SSW,203,6.7,8.1,51,0.00,,OVC004,0.00,VWS V14.01,2013-01-19 06:56:00,
2013-01-19 00:58:00,41.5,25.0,30.18,SSW,200,7.8,10.5,51,0.00,,OVC004,0.00,VWS V14.01,2013-01-19 06:58:00,
2013-01-19 00:59:00,41.5,25.0,30.18,SSW,210,6.1,9.3,51,0.00,,CLR,0.00,VWS V14.01,2013-01-19 06:59:00,
2013-01-19 01:00:00,41.5,25.0,30.18,WSW,239,5.5,8.1,51,0.00,,OVC004,0.00,VWS V14.01,2013-01-19 07:00:00,
2013-01-19 01:02:00,41.5,25.0,30.18,South,178,7.2,8.1,51,0.00,,OVC004,0.00,VWS V14.01,2013-01-19 07:02:00,
2013-01-19 01:04:00,41.5,25.0,30.18,SSE,150,7.8,8.1,51,0.00,,CLR,0.00,VWS V14.01,2013-01-19 07:04:00,
2013-01-19 01:06:00,41.4,24.8,30.18,SSW,202,7.2,8.1,51,0.00,,OVC004,0.00,VWS V14.01,2013-01-19 07:06:00,
2013-01-19 01:08:00,41.4,24.8,30.18,SW,226,7.2,9.9,51,0.00,,OVC004,0.00,VWS V14.01,2013-01-19 07:08:00,
2013-01-19 01:09:00,41.4,24.8,30.18,SW,216,6.1,7.6,51,0.00,,CLR,0.00,VWS V14.01,2013-01-19 07:09:00,
2013-01-19 01:10:00,41.4,24.8,30.18,SSW,202,7.2,7.6,51,0.00,,OVC004,0.00,VWS V14.01,2013-01-19 07:10:00,
2013-01-19 01:12:00,41.4,24.8,30.18,SSW,207,3.9,8.7,51,0.00,,OVC004,0.00,VWS V14.01,2013-01-19 07:12:00,
2013-01-19 01:14:00,41.4,24.8,30.18,SSW,202,7.2,10.5,51,0.00,,CLR,0.00,VWS V14.01,2013-01-19 07:14:00,
2013-01-19 01:16:00,41.5,25.0,30.18,South,182,10.3,10.8,51,0.00,,OVC004,0.00,VWS V14.01,2013-01-19 07:16:00,
2013-01-19 01:18:00,41.5,25.0,30.18,SW,228,6.1,10.8,51,0.00,,OVC004,0.00,VWS V14.01,2013-01-19 07:18:00,
2013-01-19 01:19:00,41.5,25.0,30.18,SSW,201,5.0,10.8,51,0.00,,CLR,0.00,VWS V14.01,2013-01-19 07:19:00,
2013-01-19 01:20:00,41.5,25.0,30.18,SSW,199,4.4,10.8,51,0.00,,OVC004,0.00,VWS V14.01,2013-01-19 07:20:00,
2013-01-19 01:22:00,41.5,25.0,30.18,SSW,207,3.9,8.1,51,0.00,,OVC004,0.00,VWS V14.01,2013-01-19 07:22:00,
2013-01-19 01:24:00,41.5,25.0,30.18,SSW,192,5.0,7.6,51,0.00,,CLR,0.00,VWS V14.01,2013-01-19 07:24:00,
2013-01-19 01:26:00,41.5,25.0,30.18,SSW,194,3.9,10.5,51,0.00,,OVC004,0.00,VWS V14.01,2013-01-19 07:26:00,
2013-01-19 01:28:00,41.5,25.0,30.18,South,183,6.7,9.9,51,0.00,,OVC004,0.00,VWS V14.01,2013-01-19 07:28:00,
2013-01-19 01:29:00,41.5,25.0,30.18,SW,215,6.1,9.9,51,0.00,,CLR,0.00,VWS V14.01,2013-01-19 07:29:00,
2013-01-19 01:30:00,41.5,25.0,30.18,South,178,7.8,8.1,51,0.00,,OVC004,0.00,VWS V14.01,2013-01-19 07:30:00,
2013-01-19 01:32:00,41.5,25.0,30.18,SSW,197,6.7,9.9,51,0.00,,OVC004,0.00,VWS V14.01,2013-01-19 07:32:00,
2013-01-19 01:34:00,41.5,25.0,30.18,South,177,5.0,10.5,51,0.00,,CLR,0.00,VWS V14.01,2013-01-19 07:34:00,
2013-01-19 01:36:00,41.5,25.0,30.18,South,169,7.2,7.6,51,0.00,,OVC004,0.00,VWS V14.01,2013-01-19 07:36:00,
2013-01-19 01:38:00,41.5,25.0,30.18,South,191,4.4,9.9,51,0.00,,OVC004,0.00,VWS V14.01,2013-01-19 07:38:00,
2013-01-19 01:39:00,41.5,25.0,30.18,SSW,200,6.7,9.9,51,0.00,,CLR,0.00,VWS V14.01,2013-01-19 07:39:00,
2013-01-19 01:40:00,41.5,25.0,30.18,South,171,3.9,9.9,51,0.00,,OVC004,0.00,VWS V14.01,2013-01-19 07:40:00,
2013-01-19 01:42:00,41.5,25.0,30.18,SSW,206,5.0,9.9,51,0.00,,OVC004,0.00,VWS V14.01,2013-01-19 07:42:00,
2013-01-19 01:44:00,41.5,25.0,30.18,South,191,5.0,9.9,51,0.00,,CLR,0.00,VWS V14.01,2013-01-19 07:44:00,
2013-01-19 01:46:00,41.5,25.0,30.18,South,190,7.8,8.1,51,0.00,,OVC004,0.00,VWS V14.01,2013-01-19 07:46:00,
2013-01-19 01:48:00,41.5,25.0,30.18,SSE,147,3.9,8.1,51,0.00,,OVC004,0.00,VWS V14.01,2013-01-19 07:48:00,
2013-01-19 01:50:00,41.5,25.0,30.18,SSW,209,7.8,10.8,51,0.00,,CLR,0.00,VWS V14.01,2013-01-19 07:50:00,
2013-01-19 01:52:00,41.5,25.0,30.18,SSW,196,7.2,8.1,51,0.00,,OVC004,0.00,VWS V14.01,2013-01-19 07:52:00,
2013-01-19 01:54:00,41.5,25.0,30.18,SSW,199,7.2,8.1,51,0.00,,OVC004,0.00,VWS V14.01,2013-01-19 07:54:00,
2013-01-19 01:55:00,41.5,25.0,30.18,SSW,208,3.9,8.1,51,0.00,,CLR,0.00,VWS V14.01,2013-01-19 07:55:00,
2013-01-19 01:56:00,41.5,25.0,30.18,SW,215,6.7,9.9,51,0.00,,OVC004,0.00,VWS V14.01,2013-01-19 07:56:00,
2013-01-19 01:58:00,41.5,25.0,30.18,South,186,4.4,8.7,51,0.00,,OVC004,0.00,VWS V14.01,2013-01-19 07:58:00,
2013-01-19 02:00:00,41.5,25.0,30.18,SSW,209,5.5,8.1,51,0.00,,CLR,0.00,VWS V14.01,2013-01-19 08:00:00,
2013-01-19 02:02:00,41.5,25.0,30.18,SSE,156,9.4,10.8,51,0.00,,OVC004,0.00,VWS V14.01,2013-01-19 08:02:00,
2013-01-19 02:04:00,41.5,25.0,30.18,South,189,7.8,9.9,51,0.00,,OVC004,0.00,VWS V14.01,2013-01-19 08:04:00,
2013-01-19 02:05:00,41.5,25.0,30.18,South,187,7.2,8.1,51,0.00,,CLR,0.00,VWS V14.01,2013-01-19 08:05:00,
2013-01-19 02:06:00,41.5,25.0,30.18,SSW,202,9.4,10.5,51,0.00,,OVC004,0.00,VWS V14.01,2013-01-19 08:06:00,
2013-01-19 02:08:00,41.5,25.0,30.18,South,181,7.2,10.8,51,0.00,,OVC004,0.00,VWS V14.01,2013-01-19 08:08:00,
2013-01-19 02:10:00,41.5,25.0,30.18,SSW,199,7.8,10.5,51,0.00,,CLR,0.00,VWS V14.01,2013-01-19 08:10:00,
2013-01-19 02:12:00,41.5,25.0,30.18,SSW,202,10.0,10.8,51,0.00,,OVC004,0.00,VWS V14.01,2013-01-19 08:12:00,
2013-01-19 02:14:00,41.5,25.0,30.18,South,184,7.8,11.3,51,0.00,,OVC004,0.00,VWS V14.01,2013-01-19 08:14:00,
2013-01-19 02:15:00,41.5,25.0,30.18,South,184,9.4,10.8,51,0.00,,CLR,0.00,VWS V14.01,2013-01-19 08:15:00,
2013-01-19 02:16:00,41.5,25.0,30.18,SSW,203,6.1,11.3,51,0.00,,OVC004,0.00,VWS V14.01,2013-01-19 08:16:00,
2013-01-19 02:18:00,41.5,25.0,30.18,South,187,7.2,13.7,51,0.00,,OVC004,0.00,VWS V14.01,2013-01-19 08:18:00,
2013-01-19 02:20:00,41.5,25.0,30.18,SSE,163,6.7,9.3,51,0.00,,CLR,0.00,VWS V14.01,2013-01-19 08:20:00,
2013-01-19 02:22:00,41.5,25.0,30.18,SSW,200,7.2,9.9,51,0.00,,OVC004,0.00,VWS V14.01,2013-01-19 08:22:00,
2013-01-19 02:24:00,41.5,25.0,30.18,SSW,202,7.8,10.8,51,0.00,,OVC004,0.00,VWS V14.01,2013-01-19 08:24:00,
2013-01-19 02:25:00,41.5,25.0,30.18,SSW,210,7.8,10.8,51,0.00,,CLR,0.00,VWS V14.01,2013-01-19 08:25:00,
2013-01-19 02:26:00,41.5,25.0,30.18,SSW,207,10.0,10.5,51,0.00,,OVC004,0.00,VWS V14.01,2013-01-19 08:26:00,
2013-01-19 02:28:00,41.5,25.0,30.18,SSW,197,5.0,11.3,51,0.00,,OVC004,0.00,VWS V14.01,2013-01-19 08:28:00,
2013-01-19 02:30:00,41.5,25.0,30.18,SSW,209,6.7,9.3,51,0.00,,CLR,0.00,VWS V14.01,2013-01-19 08:30:00,
2013-01-19 02:32:00,41.5,25.0,30.18,SSW,199,6.7,11.3,51,0.00,,OVC004,0.00,VWS V14.01,2013-01-19 08:32:00,
2013-01-19 02:34:00,41.5,25.0,30.18,SSW,210,7.8,9.9,51,0.00,,OVC004,0.00,VWS V14.01,2013-01-19 08:34:00,
2013-01-19 02:35:00,41.5,25.0,30.18,SSW,203,4.4,9.9,51,0.00,,CLR,0.00,VWS V14.01,2013-01-19 08:35:00,
2013-01-19 02:36:00,41.5,25.0,30.18,SW,216,3.9,8.1,51,0.00,,OVC004,0.00,VWS V14.01,2013-01-19 08:36:00,
2013-01-19 02:38:00,41.4,24.8,30.18,SSW,207,3.3,8.1,51,0.00,,OVC004,0.00,VWS V14.01,2013-01-19 08:38:00,
2013-01-19 02:40:00,41.4,24.8,30.18,SSW,210,3.9,7.6,51,0.00,,CLR,0.00,VWS V14.01,2013-01-19 08:40:00,
2013-01-19 02:42:00,41.2,24.7,30.18,South,186,3.9,5.2,51,0.00,,OVC004,0.00,VWS V14.01,2013-01-19 08:42:00,
2013-01-19 02:44:00,41.2,24.7,30.18,SSW,209,3.9,7.6,51,0.00,,OVC004,0.00,VWS V14.01,2013-01-19 08:44:00,
2013-01-19 02:45:00,41.2,24.7,30.18,SSE,155,10.8,11.3,51,0.00,,CLR,0.00,VWS V14.01,2013-01-19 08:45:00,
2013-01-19 02:46:00,41.2,24.7,30.18,South,182,6.7,11.3,51,0.00,,OVC004,0.00,VWS V14.01,2013-01-19 08:46:00,
2013-01-19 02:48:00,41.2,24.7,30.18,SSW,206,9.4,9.9,51,0.00,,OVC004,0.00,VWS V14.01,2013-01-19 08:48:00,
2013-01-19 02:50:00,41.2,24.7,30.18,SSE,165,0.0,10.5,51,0.00,,CLR,0.00,VWS V14.01,2013-01-19 08:50:00,
2013-01-19 02:52:00,41.0,24.5,30.18,South,191,7.8,9.9,51,0.00,,OVC004,0.00,VWS V14.01,2013-01-19 08:52:00,
2013-01-19 02:54:00,41.0,24.5,30.18,South,170,6.7,8.1,51,0.00,,OVC004,0.00,VWS V14.01,2013-01-19 08:54:00,
2013-01-19 02:55:00,41.0,24.5,30.18,SSW,211,7.2,9.9,51,0.00,,CLR,0.00,VWS V14.01,2013-01-19 08:55:00,
2013-01-19 02:56:00,41.0,24.5,30.18,SSW,193,3.3,9.9,51,0.00,,OVC004,0.00,VWS V14.01,2013-01-19 08:56:00,
2013-01-19 02:58:00,40.8,24.9,30.18,SSE,167,6.7,9.9,53,0.00,,OVC004,0.00,VWS V14.01,2013-01-19 08:58:00,
2013-01-19 03:00:00,40.8,24.9,30.18,SW,216,7.2,7.6,53,0.00,,CLR,0.00,VWS V14.01,2013-01-19 09:00:00,
2013-01-19 03:02:00,41.0,25.1,30.18,SSW,202,9.4,10.8,53,0.00,,OVC004,0.00,VWS V14.01,2013-01-19 09:02:00,
2013-01-19 03:04:00,41.0,25.1,30.18,WSW,237,6.1,10.5,53,0.00,,OVC004,0.00,VWS V14.01,2013-01-19 09:04:00,
2013-01-19 03:05:00,41.0,25.1,30.18,SSW,207,7.2,7.6,53,0.00,,CLR,0.00,VWS V14.01,2013-01-19 09:05:00,
2013-01-19 03:06:00,41.0,25.1,30.18,SW,217,7.2,8.1,53,0.00,,OVC004,0.00,VWS V14.01,2013-01-19 09:06:00,
2013-01-19 03:08:00,41.2,25.3,30.18,SW,218,7.2,8.1,53,0.00,,OVC004,0.00,VWS V14.01,2013-01-19 09:08:00,
2013-01-19 03:10:00,41.2,25.3,30.18,SSW,207,6.1,11.3,53,0.00,,CLR,0.00,VWS V14.01,2013-01-19 09:10:00,
2013-01-19 03:12:00,41.2,25.3,30.18,SSW,203,6.7,9.3,53,0.00,,OVC004,0.00,VWS V14.01,2013-01-19 09:12:00,
2013-01-19 03:14:00,41.2,25.3,30.18,SSW,212,4.4,9.9,53,0.00,,OVC004,0.00,VWS V14.01,2013-01-19 09:14:00,
2013-01-19 03:15:00,41.4,25.4,30.18,SW,222,5.0,9.9,53,0.00,,CLR,0.00,VWS V14.01,2013-01-19 09:15:00,
2013-01-19 03:16:00,41.5,25.6,30.18,SSW,200,6.7,9.9,53,0.00,,OVC004,0.00,VWS V14.01,2013-01-19 09:16:00,
2013-01-19 03:18:00,41.5,25.6,30.18,South,187,7.8,10.8,53,0.00,,OVC004,0.00,VWS V14.01,2013-01-19 09:18:00,
2013-01-19 03:20:00,41.5,25.6,30.18,SSW,197,3.3,9.9,53,0.00,,CLR,0.00,VWS V14.01,2013-01-19 09:20:00,
2013-01-19 03:22:00,41.5,25.6,30.18,SW,224,7.8,13.1,53,0.00,,OVC004,0.00,VWS V14.01,2013-01-19 09:22:00,
2013-01-19 03:24:00,41.4,25.4,30.18,SSW,208,9.4,9.9,53,0.00,,OVC004,0.00,VWS V14.01,2013-01-19 09:24:00,
2013-01-19 03:25:00,41.4,25.4,30.18,SW,225,7.2,9.9,53,0.00,,CLR,0.00,VWS V14.01,2013-01-19 09:25:00,
2013-01-19 03:26:00,41.4,25.4,30.18,SSW,209,7.2,11.3,53,0.00,,OVC004,0.00,VWS V14.01,2013-01-19 09:26:00,
2013-01-19 03:28:00,41.5,25.6,30.18,South,182,7.8,10.8,53,0.00,,OVC004,0.00,VWS V14.01,2013-01-19 09:28:00,
2013-01-19 03:30:00,41.5,25.6,30.18,SSW,192,8.3,8.7,53,0.00,,CLR,0.00,VWS V14.01,2013-01-19 09:30:00,
2013-01-19 03:32:00,41.5,25.6,30.18,SSE,161,9.4,9.9,53,0.00,,OVC004,0.00,VWS V14.01,2013-01-19 09:32:00,
2013-01-19 03:34:00,41.5,25.6,30.18,SSW,202,10.0,10.8,53,0.00,,OVC004,0.00,VWS V14.01,2013-01-19 09:34:00,
2013-01-19 03:35:00,41.5,25.6,30.18,SSW,204,7.8,11.3,53,0.00,,CLR,0.00,VWS V14.01,2013-01-19 09:35:00,
2013-01-19 03:36:00,41.5,25.6,30.18,SSW,192,7.2,11.3,53,0.00,,OVC004,0.00,VWS V14.01,2013-01-19 09:36:00,
2013-01-19 03:38:00,41.7,25.8,30.18,SSW,212,5.0,8.7,53,0.00,,OVC004,0.00,VWS V14.01,2013-01-19 09:38:00,
2013-01-19 03:40:00,41.7,25.8,30.18,South,176,7.8,10.5,53,0.00,,CLR,0.00,VWS V14.01,2013-01-19 09:40:00,
2013-01-19 03:42:00,41.7,25.8,30.18,SSW,195,6.7,11.9,53,0.00,,OVC004,0.00,VWS V14.01,2013-01-19 09:42:00,
2013-01-19 03:44:00,41.7,25.8,30.18,SSW,211,7.2,9.9,53,0.00,,OVC004,0.00,VWS V14.01,2013-01-19 09:44:00,
2013-01-19 03:45:00,41.7,25.8,30.18,SW,233,6.7,9.9,53,0.00,,CLR,0.00,VWS V14.01,2013-01-19 09:45:00,
2013-01-19 03:46:00,41.7,25.8,30.18,SSW,196,7.8,8.1,53,0.00,,OVC004,0.00,VWS V14.01,2013-01-19 09:46:00,
2013-01-19 03:48:00,41.7,25.8,30.18,South,185,10.8,11.3,53,0.00,,OVC004,0.00,VWS V14.01,2013-01-19 09:48:00,
2013-01-19 03:50:00,41.7,25.8,30.18,SSW,198,7.2,9.9,53,0.00,,CLR,0.00,VWS V14.01,2013-01-19 09:50:00,
2013-01-19 03:52:00,41.5,25.6,30.18,South,184,10.3,10.8,53,0.00,,OVC004,0.00,VWS V14.01,2013-01-19 09:52:00,
2013-01-19 03:54:00,41.5,25.6,30.15,SSW,212,10.0,10.8,53,0.00,,OVC004,0.00,VWS V14.01,2013-01-19 09:54:00,
2013-01-19 03:55:00,41.5,25.6,30.15,SSE,155,6.7,10.8,53,0.00,,CLR,0.00,VWS V14.01,2013-01-19 09:55:00,
2013-01-19 03:56:00,41.5,25.6,30.15,SSW,212,7.2,10.8,53,0.00,,OVC004,0.00,VWS V14.01,2013-01-19 09:56:00,
2013-01-19 03:58:00,41.5,25.6,30.15,SW,224,7.2,10.8,53,0.00,,OVC004,0.00,VWS V14.01,2013-01-19 09:58:00,
2013-01-19 04:00:00,41.5,25.6,30.15,SW,232,5.5,8.1,53,0.00,,CLR,0.00,VWS V14.01,2013-01-19 10:00:00,
2013-01-19 04:02:00,41.5,25.6,30.15,SSE,148,6.7,9.9,53,0.00,,OVC004,0.00,VWS V14.01,2013-01-19 10:02:00,
2013-01-19 04:04:00,41.5,25.6,30.15,SW,217,7.2,9.9,53,0.00,,OVC004,0.00,VWS V14.01,2013-01-19 10:04:00,
2013-01-19 04:05:00,41.5,25.6,30.15,SSW,196,7.2,9.9,53,0.00,,CLR,0.00,VWS V14.01,2013-01-19 10:05:00,
2013-01-19 04:06:00,41.5,25.6,30.15,SSW,202,6.7,9.9,53,0.00,,OVC004,0.00,VWS V14.01,2013-01-19 10:06:00,
2013-01-19 04:08:00,41.5,25.6,30.15,SSW,200,7.2,9.9,53,0.00,,OVC004,0.00,VWS V14.01,2013-01-19 10:08:00,
2013-01-19 04:10:00,41.5,25.6,30.15,SSE,160,7.2,10.8,53,0.00,,OVC004,0.00,VWS V14.01,2013-01-19 10:10:00,
2013-01-19 04:11:00,41.5,25.6,30.15,SW,217,6.1,9.9,53,0.00,,CLR,0.00,VWS V14.01,2013-01-19 10:11:00,
2013-01-19 04:12:00,41.5,25.6,30.15,SSW,197,6.1,9.9,53,0.00,,OVC004,0.00,VWS V14.01,2013-01-19 10:12:00,
2013-01-19 04:14:00,41.5,26.2,30.15,SSW,202,3.9,13.1,54,0.00,,OVC004,0.00,VWS V14.01,2013-01-19 10:14:00,
2013-01-19 04:16:00,41.5,26.2,30.15,SW,225,6.7,8.1,54,0.00,,CLR,0.00,VWS V14.01,2013-01-19 10:16:00,
2013-01-19 04:18:00,41.5,26.2,30.15,SSW,205,7.8,11.3,54,0.00,,OVC004,0.00,VWS V14.01,2013-01-19 10:18:00,
2013-01-19 04:20:00,41.5,26.2,30.15,SSW,192,7.8,13.1,54,0.00,,OVC004,0.00,VWS V14.01,2013-01-19 10:20:00,
2013-01-19 04:21:00,41.5,26.2,30.15,SW,225,7.2,13.1,54,0.00,,CLR,0.00,VWS V14.01,2013-01-19 10:21:00,
2013-01-19 04:22:00,41.5,26.2,30.15,SW,220,10.0,10.8,54,0.00,,OVC004,0.00,VWS V14.01,2013-01-19 10:22:00,
2013-01-19 04:24:00,41.5,26.2,30.15,SW,228,7.2,10.8,54,0.00,,OVC004,0.00,VWS V14.01,2013-01-19 10:24:00,
2013-01-19 04:26:00,41.7,26.4,30.15,SSW,197,13.0,13.7,54,0.00,,CLR,0.00,VWS V14.01,2013-01-19 10:26:00,
2013-01-19 04:28:00,41.7,26.4,30.15,South,181,6.7,13.7,54,0.00,,OVC004,0.00,VWS V14.01,2013-01-19 10:28:00,
2013-01-19 04:30:00,41.7,26.4,30.15,South,190,6.1,11.3,54,0.00,,OVC004,0.00,VWS V14.01,2013-01-19 10:30:00,
2013-01-19 04:31:00,41.7,26.4,30.15,SSE,165,6.7,11.3,54,0.00,,CLR,0.00,VWS V14.01,2013-01-19 10:31:00,
2013-01-19 04:32:00,41.7,26.4,30.15,SSW,210,6.1,8.7,54,0.00,,OVC004,0.00,VWS V14.01,2013-01-19 10:32:00,
2013-01-19 04:34:00,41.9,26.5,30.15,SW,234,3.3,7.6,54,0.00,,OVC004,0.00,VWS V14.01,2013-01-19 10:34:00,
2013-01-19 04:36:00,41.9,26.5,30.15,SSW,207,7.2,9.3,54,0.00,,CLR,0.00,VWS V14.01,2013-01-19 10:36:00,
2013-01-19 04:38:00,41.9,26.5,30.15,SW,216,6.7,10.8,54,0.00,,OVC004,0.00,VWS V14.01,2013-01-19 10:38:00,
2013-01-19 04:40:00,41.9,26.5,30.15,South,187,5.0,8.1,54,0.00,,OVC004,0.00,VWS V14.01,2013-01-19 10:40:00,
2013-01-19 04:41:00,41.9,26.5,30.15,SSW,197,7.8,9.3,54,0.00,,CLR,0.00,VWS V14.01,2013-01-19 10:41:00,
2013-01-19 04:42:00,41.9,26.5,30.15,SSW,203,10.0,10.5,54,0.00,,OVC004,0.00,VWS V14.01,2013-01-19 10:42:00,
2013-01-19 04:44:00,41.9,26.5,30.15,SSW,204,6.7,11.3,54,0.00,,OVC004,0.00,VWS V14.01,2013-01-19 10:44:00,
2013-01-19 04:46:00,41.9,26.5,30.15,SSW,200,7.8,10.8,54,0.00,,CLR,0.00,VWS V14.01,2013-01-19 10:46:00,
2013-01-19 04:48:00,41.9,26.5,30.15,SW,216,7.2,10.8,54,0.00,,OVC004,0.00,VWS V14.01,2013-01-19 10:48:00,
2013-01-19 04:50:00,41.9,26.5,30.15,South,184,7.2,10.8,54,0.00,,OVC004,0.00,VWS V14.01,2013-01-19 10:50:00,
2013-01-19 04:51:00,41.7,26.4,30.15,SSE,156,5.5,10.8,54,0.00,,CLR,0.00,VWS V14.01,2013-01-19 10:51:00,
2013-01-19 04:52:00,41.7,26.4,30.15,SSW,205,3.9,12.5,54,0.00,,OVC004,0.00,VWS V14.01,2013-01-19 10:52:00,
2013-01-19 04:54:00,41.7,26.4,30.15,SSW,205,3.9,13.7,54,0.00,,OVC004,0.00,VWS V14.01,2013-01-19 10:54:00,
2013-01-19 04:56:00,41.7,27.0,30.15,South,177,10.3,10.8,55,0.00,,CLR,0.00,VWS V14.01,2013-01-19 10:56:00,
2013-01-19 04:58:00,41.7,27.0,30.15,SSW,212,5.0,10.8,55,0.00,,OVC004,0.00,VWS V14.01,2013-01-19 10:58:00,
2013-01-19 05:00:00,41.9,27.1,30.15,SSW,209,6.7,12.5,55,0.00,,OVC004,0.00,VWS V14.01,2013-01-19 11:00:00,
2013-01-19 05:01:00,41.9,27.1,30.15,SW,214,6.7,9.9,55,0.00,,CLR,0.00,VWS V14.01,2013-01-19 11:01:00,
2013-01-19 05:02:00,41.9,27.1,30.15,SSW,195,8.3,11.3,55,0.00,,OVC004,0.00,VWS V14.01,2013-01-19 11:02:00,
2013-01-19 05:04:00,41.9,27.1,30.15,South,189,5.0,9.9,55,0.00,,OVC004,0.00,VWS V14.01,2013-01-19 11:04:00,
2013-01-19 05:06:00,41.9,27.1,30.15,South,189,7.8,14.2,55,0.00,,CLR,0.00,VWS V14.01,2013-01-19 11:06:00,
2013-01-19 05:08:00,41.9,27.1,30.15,SSW,193,7.8,10.5,55,0.00,,OVC004,0.00,VWS V14.01,2013-01-19 11:08:00,
2013-01-19 05:10:00,41.9,27.1,30.15,South,172,9.4,13.7,55,0.00,,OVC004,0.00,VWS V14.01,2013-01-19 11:10:00,
2013-01-19 05:11:00,41.9,27.1,30.15,SSW,204,10.0,13.7,55,0.00,,CLR,0.00,VWS V14.01,2013-01-19 11:11:00,
2013-01-19 05:12:00,42.1,27.3,30.15,SW,230,6.1,10.8,55,0.00,,OVC004,0.00,VWS V14.01,2013-01-19 11:12:00,
2013-01-19 05:14:00,42.1,27.3,30.15,SW,214,10.0,10.5,55,0.00,,OVC004,0.00,VWS V14.01,2013-01-19 11:14:00,
2013-01-19 05:16:00,42.1,27.3,30.15,SSW,207,7.2,11.3,55,0.00,,OVC004,0.00,VWS V14.01,2013-01-19 11:16:00,
2013-01-19 05:18:00,42.3,27.5,30.15,SSW,211,10.0,11.3,55,0.00,,OVC004,0.00,VWS V14.01,2013-01-19 11:18:00,
2013-01-19 05:20:00,42.3,27.5,30.15,South,180,10.3,13.7,55,0.00,,OVC004,0.00,VWS V14.01,2013-01-19 11:20:00,
2013-01-19 05:22:00,42.3,27.5,30.15,SSW,198,9.4,10.8,55,0.00,,OVC004,0.00,VWS V14.01,2013-01-19 11:22:00,
2013-01-19 05:24:00,42.3,27.5,30.15,South,177,10.3,13.7,55,0.00,,OVC004,0.00,VWS V14.01,2013-01-19 11:24:00,
2013-01-19 05:26:00,42.3,27.5,30.15,SSW,210,7.2,11.3,55,0.00,,OVC004,0.00,VWS V14.01,2013-01-19 11:26:00,
2013-01-19 05:28:00,42.3,27.5,30.15,SSW,211,9.4,13.7,55,0.00,,OVC004,0.00,VWS V14.01,2013-01-19 11:28:00,
2013-01-19 05:30:00,42.3,27.5,30.15,SW,220,7.8,11.3,55,0.00,,OVC004,0.00,VWS V14.01,2013-01-19 11:30:00,
2013-01-19 05:32:00,42.4,27.6,30.15,SSW,203,10.8,13.1,55,0.00,,OVC004,0.00,VWS V14.01,2013-01-19 11:32:00,
2013-01-19 05:34:00,42.4,27.6,30.15,SSW,210,14.1,14.8,55,0.00,,OVC004,0.00,VWS V14.01,2013-01-19 11:34:00,
2013-01-19 05:36:00,42.6,27.8,30.15,South,188,10.3,14.8,55,0.00,,OVC004,0.00,VWS V14.01,2013-01-19 11:36:00,
2013-01-19 05:38:00,42.6,27.8,30.15,SSE,165,10.3,10.8,55,0.00,,OVC004,0.00,VWS V14.01,2013-01-19 11:38:00,
2013-01-19 05:40:00,42.6,27.8,30.15,South,175,7.8,13.7,55,0.00,,OVC004,0.00,VWS V14.01,2013-01-19 11:40:00,
2013-01-19 05:42:00,42.6,27.8,30.15,South,186,6.7,8.7,55,0.00,,OVC004,0.00,VWS V14.01,2013-01-19 11:42:00,
2013-01-19 05:44:00,42.6,27.8,30.15,South,174,9.4,13.7,55,0.00,,OVC004,0.00,VWS V14.01,2013-01-19 11:44:00,
2013-01-19 05:46:00,42.6,27.8,30.15,SSW,211,6.7,11.3,55,0.00,,OVC004,0.00,VWS V14.01,2013-01-19 11:46:00,
2013-01-19 05:48:00,42.6,27.8,30.15,SSW,206,7.2,9.9,55,0.00,,OVC004,0.00,VWS V14.01,2013-01-19 11:48:00,
2013-01-19 05:50:00,42.6,27.8,30.15,SSW,192,7.2,10.8,55,0.00,,OVC004,0.00,VWS V14.01,2013-01-19 11:50:00,
2013-01-19 05:52:00,42.6,28.4,30.15,SSW,212,9.4,11.3,57,0.00,,OVC004,0.00,VWS V14.01,2013-01-19 11:52:00,
2013-01-19 05:54:00,42.6,28.4,30.15,SSW,213,6.7,9.9,57,0.00,,OVC004,0.00,VWS V14.01,2013-01-19 11:54:00,
2013-01-19 05:56:00,42.6,28.4,30.15,SW,218,6.7,11.3,57,0.00,,OVC004,0.00,VWS V14.01,2013-01-19 11:56:00,
2013-01-19 05:58:00,42.6,28.4,30.15,SW,234,7.2,11.3,57,0.00,,OVC004,0.00,VWS V14.01,2013-01-19 11:58:00,
2013-01-19 06:00:00,42.4,28.2,30.15,South,169,10.3,10.8,57,0.00,,OVC004,0.00,VWS V14.01,2013-01-19 12:00:00,
2013-01-19 06:02:00,42.4,28.2,30.15,SSW,202,7.8,10.8,57,0.00,,OVC004,0.00,VWS V14.01,2013-01-19 12:02:00,
2013-01-19 06:04:00,42.4,28.2,30.15,WSW,237,4.4,10.8,57,0.00,,OVC004,0.00,VWS V14.01,2013-01-19 12:04:00,
2013-01-19 06:06:00,42.4,28.2,30.15,SSW,198,10.3,10.8,57,0.00,,OVC004,0.00,VWS V14.01,2013-01-19 12:06:00,
2013-01-19 06:08:00,42.4,28.2,30.15,SSW,212,8.3,11.3,57,0.00,,OVC004,0.00,VWS V14.01,2013-01-19 12:08:00,
2013-01-19 06:10:00,42.4,28.2,30.15,South,184,6.1,13.7,57,0.00,,OVC004,0.00,VWS V14.01,2013-01-19 12:10:00,
2013-01-19 06:12:00,42.4,28.2,30.15,SW,215,6.7,11.3,57,0.00,,OVC004,0.00,VWS V14.01,2013-01-19 12:12:00,
2013-01-19 06:14:00,42.4,28.2,30.15,SSW,212,9.4,11.9,57,0.00,,OVC004,0.00,VWS V14.01,2013-01-19 12:14:00,
2013-01-19 06:16:00,42.4,28.2,30.15,WSW,243,6.7,10.8,57,0.00,,OVC004,0.00,VWS V14.01,2013-01-19 12:16:00,
2013-01-19 06:18:00,42.4,28.2,30.15,SSW,201,4.4,9.3,57,0.00,,OVC004,0.00,VWS V14.01,2013-01-19 12:18:00,
2013-01-19 06:20:00,42.6,28.4,30.15,SSW,208,10.0,10.5,57,0.00,,OVC004,0.00,VWS V14.01,2013-01-19 12:20:00,
2013-01-19 06:22:00,42.4,28.2,30.15,SSW,204,6.7,10.8,57,0.00,,OVC004,0.00,VWS V14.01,2013-01-19 12:22:00,
2013-01-19 06:24:00,42.4,28.2,30.15,SW,221,7.2,10.8,57,0.00,,OVC004,0.00,VWS V14.01,2013-01-19 12:24:00,
2013-01-19 06:26:00,42.4,28.2,30.15,South,187,10.0,10.5,57,0.00,,OVC004,0.00,VWS V14.01,2013-01-19 12:26:00,
2013-01-19 06:28:00,42.4,28.8,30.15,SSW,209,6.7,10.5,58,0.00,,OVC004,0.00,VWS V14.01,2013-01-19 12:28:00,
2013-01-19 06:30:00,42.4,28.8,30.15,South,186,7.8,11.3,58,0.00,,OVC004,0.00,VWS V14.01,2013-01-19 12:30:00,
2013-01-19 06:32:00,42.4,28.8,30.15,SSW,207,7.8,10.8,58,0.00,,OVC004,0.00,VWS V14.01,2013-01-19 12:32:00,
2013-01-19 06:34:00,42.4,28.8,30.15,SSW,212,5.0,13.1,58,0.00,,OVC004,0.00,VWS V14.01,2013-01-19 12:34:00,
2013-01-19 06:36:00,42.3,28.6,30.15,South,187,7.2,10.5,58,0.00,,OVC004,0.00,VWS V14.01,2013-01-19 12:36:00,
2013-01-19 06:38:00,42.3,28.6,30.15,SW,220,10.8,11.3,58,0.00,,OVC004,0.00,VWS V14.01,2013-01-19 12:38:00,
2013-01-19 06:40:00,42.3,28.6,30.15,South,187,7.2,13.1,58,0.00,,OVC004,0.00,VWS V14.01,2013-01-19 12:40:00,
2013-01-19 06:42:00,42.3,28.6,30.15,SSW,194,6.1,13.7,58,0.00,,OVC004,0.00,VWS V14.01,2013-01-19 12:42:00,
2013-01-19 06:44:00,42.3,28.6,30.15,SSW,210,9.4,10.5,58,0.00,,OVC004,0.00,VWS V14.01,2013-01-19 12:44:00,
2013-01-19 06:46:00,42.3,28.6,30.15,SSW,209,10.0,14.2,58,0.00,,OVC004,0.00,VWS V14.01,2013-01-19 12:46:00,
2013-01-19 06:47:00,42.3,28.6,30.15,SSE,150,6.7,10.8,58,0.00,,CLR,0.00,VWS V14.01,2013-01-19 12:47:00,
2013-01-19 06:48:00,42.3,28.6,30.15,SW,217,5.0,10.5,58,0.00,,CLR,0.00,VWS V14.01,2013-01-19 12:48:00,
2013-01-19 06:50:00,42.3,28.6,30.15,SW,221,7.2,10.5,58,0.00,,OVC004,0.00,VWS V14.01,2013-01-19 12:50:00,
2013-01-19 06:52:00,42.3,28.6,30.15,SSW,207,9.4,11.3,58,0.00,,OVC004,0.00,VWS V14.01,2013-01-19 12:52:00,
2013-01-19 06:53:00,42.3,28.6,30.15,SW,217,8.3,11.3,58,0.00,,CLR,0.00,VWS V14.01,2013-01-19 12:53:00,
2013-01-19 06:54:00,42.3,28.6,30.15,South,189,7.8,10.8,58,0.00,,OVC004,0.00,VWS V14.01,2013-01-19 12:54:00,
2013-01-19 06:56:00,42.3,28.6,30.15,SSW,193,4.4,8.1,58,0.00,,OVC004,0.00,VWS V14.01,2013-01-19 12:56:00,
2013-01-19 06:58:00,42.3,28.6,30.15,WSW,237,9.4,9.9,58,0.00,,CLR,0.00,VWS V14.01,2013-01-19 12:58:00,
2013-01-19 07:00:00,42.3,28.6,30.15,SSE,167,7.2,9.9,58,0.00,,OVC004,0.00,VWS V14.01,2013-01-19 13:00:00,
2013-01-19 07:02:00,42.1,28.4,30.15,South,185,7.2,10.8,58,0.00,,OVC004,0.00,VWS V14.01,2013-01-19 13:02:00,
2013-01-19 07:03:00,42.1,28.4,30.15,SSE,166,8.9,9.3,58,0.00,,CLR,0.00,VWS V14.01,2013-01-19 13:03:00,
2013-01-19 07:04:00,42.1,28.4,30.15,SSW,196,4.4,9.3,58,0.00,,OVC004,0.00,VWS V14.01,2013-01-19 13:04:00,
2013-01-19 07:06:00,42.1,29.0,30.15,South,189,7.2,11.3,59,0.00,,OVC004,0.00,VWS V14.01,2013-01-19 13:06:00,
2013-01-19 07:08:00,42.3,29.1,30.15,SSW,202,5.0,13.7,59,0.00,,CLR,0.00,VWS V14.01,2013-01-19 13:08:00,
2013-01-19 07:10:00,42.3,29.1,30.15,South,183,5.0,9.9,59,0.00,,OVC004,0.00,VWS V14.01,2013-01-19 13:10:00,
2013-01-19 07:12:00,42.3,28.6,30.15,South,191,5.0,10.5,58,0.00,,OVC004,0.00,VWS V14.01,2013-01-19 13:12:00,
2013-01-19 07:14:00,42.1,28.4,30.15,South,177,6.1,10.5,58,0.00,,CLR,0.00,VWS V14.01,2013-01-19 13:14:00,
2013-01-19 07:16:00,41.9,28.2,30.15,South,184,8.9,10.5,58,0.00,,OVC004,0.00,VWS V14.01,2013-01-19 13:16:00,
2013-01-19 07:18:00,41.9,28.8,30.15,South,174,0.0,9.3,59,0.00,,OVC004,0.00,VWS V14.01,2013-01-19 13:18:00,
2013-01-19 07:19:00,41.9,28.8,30.15,SSW,198,7.8,8.1,59,0.00,,CLR,0.00,VWS V14.01,2013-01-19 13:19:00,
2013-01-19 07:20:00,41.7,28.6,30.15,South,178,3.9,8.1,59,0.00,,OVC004,0.00,VWS V14.01,2013-01-19 13:20:00,
2013-01-19 07:22:00,41.7,28.6,30.15,SSW,195,7.8,10.8,59,0.00,,OVC004,0.00,VWS V14.01,2013-01-19 13:22:00,
2013-01-19 07:24:00,41.7,28.6,30.12,South,184,7.8,8.1,59,0.00,,CLR,0.00,VWS V14.01,2013-01-19 13:24:00,
2013-01-19 07:26:00,41.7,28.6,30.12,SSW,192,7.2,14.8,59,0.00,,OVC004,0.00,VWS V14.01,2013-01-19 13:26:00,
2013-01-19 07:28:00,41.7,29.2,30.12,SSW,200,6.7,10.8,61,0.00,,OVC004,0.00,VWS V14.01,2013-01-19 13:28:00,
2013-01-19 07:29:00,41.7,29.2,30.12,SSW,205,6.7,10.8,61,0.00,,CLR,0.00,VWS V14.01,2013-01-19 13:29:00,
2013-01-19 07:30:00,41.7,29.2,30.12,SSW,207,7.2,9.9,61,0.00,,OVC004,0.00,VWS V14.01,2013-01-19 13:30:00,
2013-01-19 07:32:00,41.5,29.0,30.12,SE,129,3.9,10.5,61,0.00,,OVC004,0.00,VWS V14.01,2013-01-19 13:32:00,
2013-01-19 07:34:00,41.5,29.0,30.12,SSW,205,6.7,9.3,61,0.00,,CLR,0.00,VWS V14.01,2013-01-19 13:34:00,
2013-01-19 07:36:00,41.5,29.0,30.12,South,177,10.3,13.7,61,0.00,,OVC004,0.00,VWS V14.01,2013-01-19 13:36:00,
2013-01-19 07:38:00,41.7,29.2,30.12,SSE,164,6.7,10.8,61,0.00,,OVC004,0.00,VWS V14.01,2013-01-19 13:38:00,
2013-01-19 07:39:00,41.7,29.2,30.15,South,187,10.3,10.8,61,0.00,,CLR,0.00,VWS V14.01,2013-01-19 13:39:00,
2013-01-19 07:40:00,41.7,29.2,30.15,SSW,208,7.8,10.8,61,0.00,,OVC004,0.00,VWS V14.01,2013-01-19 13:40:00,
2013-01-19 07:58:00,42.1,29.5,30.15,SSW,196,7.2,7.6,61,0.00,,,0.00,VWS V14.01,2013-01-19 13:58:00,
2013-01-19 08:00:00,42.1,29.5,30.15,SSW,193,10.8,11.3,61,0.00,,OVC004,0.00,VWS V14.01,2013-01-19 14:00:00,
2013-01-19 08:02:00,42.3,29.7,30.15,SSW,197,9.4,11.3,61,0.00,,OVC004,0.00,VWS V14.01,2013-01-19 14:02:00,
2013-01-19 08:03:00,42.3,29.7,30.15,SSE,152,6.7,13.7,61,0.00,,CLR,0.00,VWS V14.01,2013-01-19 14:03:00,
2013-01-19 08:04:00,42.3,29.7,30.15,SSW,203,9.4,13.7,61,0.00,,OVC004,0.00,VWS V14.01,2013-01-19 14:04:00,
2013-01-19 08:06:00,42.4,29.3,30.15,SW,228,7.8,9.9,59,0.00,,OVC004,0.00,VWS V14.01,2013-01-19 14:06:00,
2013-01-19 08:08:00,42.4,29.3,30.15,SW,217,10.0,10.8,59,0.00,,CLR,0.00,VWS V14.01,2013-01-19 14:08:00,
2013-01-19 08:10:00,42.6,29.5,30.15,SSW,203,7.2,9.9,59,0.00,,OVC004,0.00,VWS V14.01,2013-01-19 14:10:00,
2013-01-19 08:12:00,42.8,29.6,30.15,SSW,199,7.2,13.7,59,0.00,,OVC004,0.00,VWS V14.01,2013-01-19 14:12:00,
2013-01-19 08:13:00,42.8,29.6,30.15,South,185,10.3,13.7,59,0.00,,CLR,0.00,VWS V14.01,2013-01-19 14:13:00,
2013-01-19 08:14:00,43.0,29.3,30.15,SSW,201,9.4,10.8,58,0.00,,OVC004,0.00,VWS V14.01,2013-01-19 14:14:00,
2013-01-19 08:16:00,43.0,29.3,30.15,South,187,6.7,13.7,58,0.00,,OVC004,0.00,VWS V14.01,2013-01-19 14:16:00,
2013-01-19 08:18:00,43.2,29.4,30.15,SSE,166,5.0,7.6,58,0.00,,CLR,0.00,VWS V14.01,2013-01-19 14:18:00,
2013-01-19 08:20:00,43.3,29.6,30.15,SSW,210,10.0,11.3,58,0.00,,OVC004,0.00,VWS V14.01,2013-01-19 14:20:00,
2013-01-19 08:22:00,43.5,29.8,30.15,SW,223,7.8,14.2,58,0.00,,OVC004,0.00,VWS V14.01,2013-01-19 14:22:00,
2013-01-19 08:23:00,43.5,29.8,30.15,SSW,212,9.4,14.2,58,0.00,,CLR,0.00,VWS V14.01,2013-01-19 14:23:00,
2013-01-19 08:24:00,43.5,29.8,30.15,South,175,7.8,9.9,58,0.00,,OVC004,0.00,VWS V14.01,2013-01-19 14:24:00,
2013-01-19 08:26:00,43.7,29.9,30.15,SW,228,6.7,10.5,58,0.00,,OVC004,0.00,VWS V14.01,2013-01-19 14:26:00,
2013-01-19 08:28:00,43.9,29.5,30.15,SSW,196,10.3,14.8,57,0.00,,CLR,0.00,VWS V14.01,2013-01-19 14:28:00,
2013-01-19 08:30:00,44.1,29.7,30.15,SW,214,7.8,14.8,57,0.00,,OVC004,0.00,VWS V14.01,2013-01-19 14:30:00,
2013-01-19 08:32:00,44.1,29.7,30.15,SSW,212,12.5,13.1,57,0.00,,OVC004,0.00,VWS V14.01,2013-01-19 14:32:00,
2013-01-19 08:33:00,44.1,29.7,30.15,SSW,211,10.0,13.7,57,0.00,,CLR,0.00,VWS V14.01,2013-01-19 14:33:00,
2013-01-19 08:34:00,44.2,29.9,30.15,SW,234,10.8,13.7,57,0.00,,OVC004,0.00,VWS V14.01,2013-01-19 14:34:00,
2013-01-19 08:36:00,44.2,29.9,30.15,South,191,10.0,11.3,57,0.00,,OVC004,0.00,VWS V14.01,2013-01-19 14:36:00,
2013-01-19 08:38:00,44.6,30.2,30.15,South,173,7.8,11.3,57,0.00,,CLR,0.00,VWS V14.01,2013-01-19 14:38:00,
2013-01-19 08:40:00,44.6,30.2,30.15,SSW,203,6.7,13.1,57,0.00,,OVC004,0.00,VWS V14.01,2013-01-19 14:40:00,
2013-01-19 08:42:00,44.8,30.4,30.15,SSW,201,5.0,10.5,57,0.00,,OVC004,0.00,VWS V14.01,2013-01-19 14:42:00,
2013-01-19 08:43:00,45.0,30.0,30.15,SSW,196,10.0,14.2,55,0.00,,CLR,0.00,VWS V14.01,2013-01-19 14:43:00,
2013-01-19 08:44:00,45.0,30.0,30.15,SSW,202,7.8,14.2,55,0.00,,OVC004,0.00,VWS V14.01,2013-01-19 14:44:00,
2013-01-19 08:46:00,45.3,30.3,30.15,South,188,10.3,11.3,55,0.00,,OVC004,0.00,VWS V14.01,2013-01-19 14:46:00,
2013-01-19 08:48:00,45.3,30.3,30.15,SSW,197,13.6,14.2,55,0.00,,CLR,0.00,VWS V14.01,2013-01-19 14:48:00,
2013-01-19 08:50:00,45.5,30.5,30.15,SSW,212,10.8,14.2,55,0.00,,OVC004,0.00,VWS V14.01,2013-01-19 14:50:00,
2013-01-19 08:52:00,45.7,30.6,30.15,SW,231,10.0,11.3,55,0.00,,OVC004,0.00,VWS V14.01,2013-01-19 14:52:00,
2013-01-19 08:53:00,45.9,30.8,30.15,SSW,211,8.9,11.3,55,0.00,,CLR,0.00,VWS V14.01,2013-01-19 14:53:00,
2013-01-19 08:54:00,46.0,31.0,30.15,SW,223,13.0,13.7,55,0.00,,OVC004,0.00,VWS V14.01,2013-01-19 14:54:00,
2013-01-19 08:56:00,46.0,31.0,30.15,South,190,7.2,11.3,55,0.00,,OVC004,0.00,VWS V14.01,2013-01-19 14:56:00,
2013-01-19 08:58:00,46.4,30.7,30.15,SSW,195,5.0,13.1,54,0.00,,CLR,0.00,VWS V14.01,2013-01-19 14:58:00,
2013-01-19 09:00:00,46.4,30.7,30.15,South,179,6.1,13.1,54,0.00,,OVC004,0.00,VWS V14.01,2013-01-19 15:00:00,
2013-01-19 09:02:00,46.6,30.9,30.15,SW,216,10.0,13.1,54,0.00,,OVC004,0.00,VWS V14.01,2013-01-19 15:02:00,
2013-01-19 09:03:00,46.8,31.1,30.15,SW,217,5.0,13.1,54,0.00,,CLR,0.00,VWS V14.01,2013-01-19 15:03:00,
2013-01-19 09:04:00,46.9,31.2,30.15,SW,228,10.3,10.8,54,0.00,,OVC004,0.00,VWS V14.01,2013-01-19 15:04:00,
2013-01-19 09:06:00,47.1,31.4,30.15,SW,232,13.0,16.6,54,0.00,,OVC004,0.00,VWS V14.01,2013-01-19 15:06:00,
2013-01-19 09:08:00,47.3,31.0,30.15,SSW,198,10.8,17.2,53,0.00,,CLR,0.00,VWS V14.01,2013-01-19 15:08:00,
2013-01-19 09:10:00,47.5,31.1,30.15,SW,214,13.6,14.2,53,0.00,,OVC004,0.00,VWS V14.01,2013-01-19 15:10:00,
2013-01-19 09:12:00,47.7,31.3,30.15,SSW,207,10.3,14.2,53,0.00,,OVC004,0.00,VWS V14.01,2013-01-19 15:12:00,
2013-01-19 09:13:00,47.8,31.5,30.15,SSW,210,15.3,16.0,53,0.00,,CLR,0.00,VWS V14.01,2013-01-19 15:13:00,
2013-01-19 09:14:00,47.8,31.5,30.15,SSW,199,13.6,16.0,53,0.00,,OVC004,0.00,VWS V14.01,2013-01-19 15:14:00,
2013-01-19 09:16:00,48.0,31.6,30.15,SSW,195,6.7,13.1,53,0.00,,OVC004,0.00,VWS V14.01,2013-01-19 15:16:00,
2013-01-19 09:18:00,48.4,31.3,30.15,SSW,208,13.0,14.8,51,0.00,,CLR,0.00,VWS V14.01,2013-01-19 15:18:00,
2013-01-19 09:20:00,48.6,31.5,30.15,SW,220,10.8,16.6,51,0.00,,OVC004,0.00,VWS V14.01,2013-01-19 15:20:00,
2013-01-19 09:22:00,48.7,31.7,30.15,WSW,242,7.2,11.3,51,0.00,,OVC004,0.00,VWS V14.01,2013-01-19 15:22:00,
2013-01-19 09:23:00,48.9,31.8,30.18,SSW,204,10.0,13.7,51,0.00,,CLR,0.00,VWS V14.01,2013-01-19 15:23:00,
2013-01-19 09:24:00,48.9,31.8,30.18,SSW,206,10.3,13.7,51,0.00,,OVC004,0.00,VWS V14.01,2013-01-19 15:24:00,
2013-01-19 09:26:00,49.1,32.0,30.18,South,186,10.8,11.3,51,0.00,,OVC004,0.00,VWS V14.01,2013-01-19 15:26:00,
2013-01-19 09:28:00,49.5,32.3,30.18,SSW,197,12.5,13.7,51,0.00,,OVC004,0.00,VWS V14.01,2013-01-19 15:28:00,
2013-01-19 09:29:00,49.5,32.3,30.18,South,190,11.9,13.7,51,0.00,,CLR,0.00,VWS V14.01,2013-01-19 15:29:00,
2013-01-19 09:30:00,49.6,32.5,30.18,SSW,213,13.0,13.7,51,0.00,,OVC004,0.00,VWS V14.01,2013-01-19 15:30:00,
2013-01-19 09:32:00,49.6,32.5,30.18,SW,221,11.9,14.2,51,0.00,,OVC004,0.00,VWS V14.01,2013-01-19 15:32:00,
2013-01-19 09:34:00,49.8,32.7,30.18,SSW,203,15.3,16.0,51,0.00,,CLR,0.00,VWS V14.01,2013-01-19 15:34:00,
2013-01-19 09:36:00,50.0,32.2,30.18,SW,217,13.0,18.3,50,0.00,,OVC004,0.00,VWS V14.01,2013-01-19 15:36:00,
2013-01-19 09:38:00,50.2,32.3,30.18,SSW,197,10.8,16.6,50,0.00,,OVC004,0.00,VWS V14.01,2013-01-19 15:38:00,
2013-01-19 09:39:00,50.2,32.3,30.18,SW,226,9.4,16.6,50,0.00,,CLR,0.00,VWS V14.01,2013-01-19 15:39:00,
2013-01-19 09:40:00,50.4,32.5,30.18,SW,224,7.8,14.2,50,0.00,,OVC004,0.00,VWS V14.01,2013-01-19 15:40:00,
2013-01-19 09:42:00,50.5,32.7,30.18,SSW,209,7.2,14.2,50,0.00,,OVC004,0.00,VWS V14.01,2013-01-19 15:42:00,
2013-01-19 09:44:00,50.7,32.8,30.18,SW,227,7.8,10.5,50,0.00,,CLR,0.00,VWS V14.01,2013-01-19 15:44:00,
2013-01-19 09:46:00,51.1,33.2,30.18,SW,226,10.8,17.2,50,0.00,,OVC004,0.00,VWS V14.01,2013-01-19 15:46:00,
2013-01-19 09:48:00,51.3,33.3,30.18,SSW,211,17.5,18.3,50,0.00,,OVC004,0.00,VWS V14.01,2013-01-19 15:48:00,
2013-01-19 09:49:00,51.4,32.8,30.18,SW,233,14.1,18.3,49,0.00,,CLR,0.00,VWS V14.01,2013-01-19 15:49:00,
2013-01-19 09:50:00,51.4,32.8,30.18,SSW,198,18.6,19.5,49,0.00,,OVC004,0.00,VWS V14.01,2013-01-19 15:50:00,
2013-01-19 09:52:00,51.6,33.0,30.18,SSW,210,7.8,19.5,49,0.00,,OVC004,0.00,VWS V14.01,2013-01-19 15:52:00,
2013-01-19 09:54:00,51.6,33.0,30.18,South,179,9.4,16.0,49,0.00,,CLR,0.00,VWS V14.01,2013-01-19 15:54:00,
2013-01-19 09:56:00,51.8,33.2,30.18,SSW,194,15.8,16.6,49,0.00,,OVC004,0.00,VWS V14.01,2013-01-19 15:56:00,
2013-01-19 09:58:00,52.0,33.3,30.18,SW,224,10.3,16.6,49,0.00,,OVC004,0.00,VWS V14.01,2013-01-19 15:58:00,
2013-01-19 09:59:00,52.0,33.3,30.18,SW,221,10.0,13.7,49,0.00,,CLR,0.00,VWS V14.01,2013-01-19 15:59:00,
2013-01-19 10:00:00,52.2,33.5,30.18,SW,214,15.8,16.6,49,0.00,,OVC004,0.00,VWS V14.01,2013-01-19 16:00:00,
2013-01-19 10:02:00,52.3,33.7,30.18,SW,226,13.6,16.0,49,0.00,,OVC004,0.00,VWS V14.01,2013-01-19 16:02:00,
2013-01-19 10:04:00,52.5,33.8,30.18,SSW,213,8.9,14.2,49,0.00,,CLR,0.00,VWS V14.01,2013-01-19 16:04:00,
2013-01-19 10:06:00,52.9,34.2,30.18,SW,216,10.8,16.0,49,0.00,,OVC004,0.00,VWS V14.01,2013-01-19 16:06:00,
2013-01-19 10:08:00,53.1,33.7,30.18,South,191,13.6,24.4,48,0.00,,OVC004,0.00,VWS V14.01,2013-01-19 16:08:00,
2013-01-19 10:09:00,53.1,33.7,30.18,SSW,202,15.8,24.4,48,0.00,,CLR,0.00,VWS V14.01,2013-01-19 16:09:00,
2013-01-19 10:10:00,53.1,33.7,30.18,WSW,238,10.0,21.2,48,0.00,,OVC004,0.00,VWS V14.01,2013-01-19 16:10:00,
2013-01-19 10:12:00,53.1,33.7,30.18,SW,236,18.6,19.5,48,0.00,,OVC004,0.00,VWS V14.01,2013-01-19 16:12:00,
2013-01-19 10:14:00,53.1,33.7,30.18,WSW,240,10.8,21.8,48,0.00,,CLR,0.00,VWS V14.01,2013-01-19 16:14:00,
2013-01-19 10:16:00,53.2,33.8,30.18,WSW,254,12.5,17.2,48,0.00,,OVC004,0.00,VWS V14.01,2013-01-19 16:16:00,
2013-01-19 10:18:00,53.4,34.0,30.18,SSW,199,15.8,16.6,48,0.00,,OVC004,0.00,VWS V14.01,2013-01-19 16:18:00,
2013-01-19 10:19:00,53.6,34.2,30.18,SW,220,15.3,18.9,48,0.00,,CLR,0.00,VWS V14.01,2013-01-19 16:19:00,
2013-01-19 10:20:00,53.6,34.2,30.18,WSW,258,12.5,19.5,48,0.00,,OVC004,0.00,VWS V14.01,2013-01-19 16:20:00,
2013-01-19 10:22:00,53.6,34.2,30.18,WSW,239,13.6,22.7,48,0.00,,OVC004,0.00,VWS V14.01,2013-01-19 16:22:00,
2013-01-19 10:24:00,53.6,34.2,30.18,WSW,240,10.8,16.6,48,0.00,,CLR,0.00,VWS V14.01,2013-01-19 16:24:00,
2013-01-19 10:26:00,53.8,34.3,30.18,SW,230,15.3,16.6,48,0.00,,OVC004,0.00,VWS V14.01,2013-01-19 16:26:00,
2013-01-19 10:28:00,54.0,34.5,30.18,SW,217,14.7,18.3,48,0.00,,OVC004,0.00,VWS V14.01,2013-01-19 16:28:00,
2013-01-19 10:29:00,54.0,34.5,30.18,SW,216,12.5,18.3,48,0.00,,CLR,0.00,VWS V14.01,2013-01-19 16:29:00,
2013-01-19 10:30:00,54.1,34.7,30.18,WSW,247,13.0,16.0,48,0.00,,OVC004,0.00,VWS V14.01,2013-01-19 16:30:00,
2013-01-19 10:32:00,54.3,34.1,30.18,SSW,211,14.7,22.1,46,0.00,,OVC004,0.00,VWS V14.01,2013-01-19 16:32:00,
2013-01-19 10:34:00,54.5,34.3,30.18,SSW,209,16.4,17.2,46,0.00,,CLR,0.00,VWS V14.01,2013-01-19 16:34:00,
2013-01-19 10:36:00,54.5,34.3,30.18,SW,216,10.3,17.2,46,0.00,,OVC004,0.00,VWS V14.01,2013-01-19 16:36:00,
2013-01-19 10:38:00,54.5,34.3,30.18,WSW,237,15.8,19.5,46,0.00,,OVC004,0.00,VWS V14.01,2013-01-19 16:38:00,
2013-01-19 10:39:00,54.7,34.4,30.18,WSW,246,15.8,22.7,46,0.00,,CLR,0.00,VWS V14.01,2013-01-19 16:39:00,
2013-01-19 10:40:00,54.7,34.4,30.18,SSW,208,19.1,22.7,46,0.00,,OVC004,0.00,VWS V14.01,2013-01-19 16:40:00,
2013-01-19 10:42:00,54.7,34.4,30.18,SW,226,16.4,20.1,46,0.00,,OVC004,0.00,VWS V14.01,2013-01-19 16:42:00,
2013-01-19 10:44:00,54.7,34.4,30.18,WSW,257,10.8,23.8,46,0.00,,CLR,0.00,VWS V14.01,2013-01-19 16:44:00,
2013-01-19 10:46:00,54.7,34.4,30.18,SW,236,9.4,18.9,46,0.00,,OVC004,0.00,VWS V14.01,2013-01-19 16:46:00,
2013-01-19 10:48:00,54.9,34.6,30.18,WSW,241,20.2,22.7,46,0.00,,OVC004,0.00,VWS V14.01,2013-01-19 16:48:00,
2013-01-19 10:49:00,54.9,34.6,30.18,SSW,211,12.5,22.7,46,0.00,,CLR,0.00,VWS V14.01,2013-01-19 16:49:00,
2013-01-19 10:50:00,54.9,34.6,30.18,WSW,241,10.8,21.2,46,0.00,,OVC004,0.00,VWS V14.01,2013-01-19 16:50:00,
2013-01-19 10:52:00,54.9,34.6,30.18,SW,235,14.7,22.7,46,0.00,,OVC004,0.00,VWS V14.01,2013-01-19 16:52:00,
2013-01-19 10:54:00,55.0,34.8,30.18,SSW,211,10.3,21.2,46,0.00,,CLR,0.00,VWS V14.01,2013-01-19 16:54:00,
2013-01-19 10:56:00,55.0,34.8,30.18,SW,234,13.0,18.3,46,0.00,,OVC004,0.00,VWS V14.01,2013-01-19 16:56:00,
2013-01-19 10:58:00,55.2,34.9,30.18,SW,222,13.6,19.5,46,0.00,,OVC004,0.00,VWS V14.01,2013-01-19 16:58:00,
2013-01-19 10:59:00,55.2,34.9,30.18,SW,217,15.3,20.1,46,0.00,,CLR,0.00,VWS V14.01,2013-01-19 16:59:00,
2013-01-19 11:00:00,55.2,34.9,30.18,SSW,205,15.8,20.1,46,0.00,,OVC004,0.00,VWS V14.01,2013-01-19 17:00:00,
2013-01-19 11:02:00,55.2,34.9,30.18,SSW,209,10.8,17.2,46,0.00,,OVC004,0.00,VWS V14.01,2013-01-19 17:02:00,
2013-01-19 11:04:00,55.4,34.4,30.18,WSW,251,13.0,17.2,45,0.00,,CLR,0.00,VWS V14.01,2013-01-19 17:04:00,
2013-01-19 11:06:00,55.6,35.3,30.18,WSW,238,9.4,16.0,46,0.00,,OVC004,0.00,VWS V14.01,2013-01-19 17:06:00,
2013-01-19 11:08:00,55.9,34.9,30.18,WSW,244,16.4,24.4,45,0.00,,OVC004,0.00,VWS V14.01,2013-01-19 17:08:00,
2013-01-19 11:09:00,55.9,34.9,30.18,SW,232,19.7,20.6,45,0.00,,CLR,0.00,VWS V14.01,2013-01-19 17:09:00,
2013-01-19 11:10:00,55.9,34.9,30.18,SW,221,16.4,20.6,45,0.00,,OVC004,0.00,VWS V14.01,2013-01-19 17:10:00,
2013-01-19 11:12:00,55.8,34.7,30.18,SW,233,10.8,17.2,45,0.00,,OVC004,0.00,VWS V14.01,2013-01-19 17:12:00,
2013-01-19 11:14:00,55.8,34.7,30.18,SW,218,13.0,23.3,45,0.00,,OVC004,0.00,VWS V14.01,2013-01-19 17:14:00,
2013-01-19 11:15:00,55.8,34.7,30.18,SSW,200,16.4,20.6,45,0.00,,CLR,0.00,VWS V14.01,2013-01-19 17:15:00,
2013-01-19 11:16:00,55.8,34.7,30.18,SSW,201,11.9,20.6,45,0.00,,OVC004,0.00,VWS V14.01,2013-01-19 17:16:00,
2013-01-19 11:18:00,55.8,34.7,30.18,WSW,254,18.6,19.5,45,0.00,,OVC004,0.00,VWS V14.01,2013-01-19 17:18:00,
2013-01-19 11:20:00,55.8,34.7,30.18,SW,218,19.1,20.1,45,0.00,,CLR,0.00,VWS V14.01,2013-01-19 17:20:00,
2013-01-19 11:22:00,55.8,34.7,30.18,WSW,250,11.9,20.1,45,0.00,,OVC004,0.00,VWS V14.01,2013-01-19 17:22:00,
2013-01-19 11:24:00,55.9,34.9,30.15,SSW,211,10.0,20.1,45,0.00,,OVC004,0.00,VWS V14.01,2013-01-19 17:24:00,
2013-01-19 11:26:00,55.9,34.9,30.15,SW,234,14.7,15.4,45,0.00,,CLR,0.00,VWS V14.01,2013-01-19 17:26:00,
2013-01-19 11:28:00,56.1,34.3,30.15,SW,232,15.8,20.6,44,0.00,,OVC004,0.00,VWS V14.01,2013-01-19 17:28:00,
2013-01-19 11:30:00,56.1,35.0,30.15,SW,214,13.6,21.2,45,0.00,,OVC004,0.00,VWS V14.01,2013-01-19 17:30:00,
2013-01-19 11:31:00,56.1,35.0,30.15,SW,224,12.5,16.6,45,0.00,,CLR,0.00,VWS V14.01,2013-01-19 17:31:00,
2013-01-19 11:32:00,56.1,35.0,30.15,SW,217,13.6,16.6,45,0.00,,OVC004,0.00,VWS V14.01,2013-01-19 17:32:00,
2013-01-19 11:34:00,56.3,35.2,30.15,SW,221,13.6,17.2,45,0.00,,OVC004,0.00,VWS V14.01,2013-01-19 17:34:00,
2013-01-19 11:36:00,56.3,35.2,30.15,SW,224,10.3,16.6,45,0.00,,CLR,0.00,VWS V14.01,2013-01-19 17:36:00,
2013-01-19 11:38:00,56.5,35.3,30.15,South,180,7.8,17.2,45,0.00,,OVC004,0.00,VWS V14.01,2013-01-19 17:38:00,
2013-01-19 11:40:00,56.5,34.6,30.15,SSE,148,19.1,20.1,44,0.00,,OVC004,0.00,VWS V14.01,2013-01-19 17:40:00,
2013-01-19 11:41:00,56.5,35.3,30.15,SW,235,14.1,20.1,45,0.00,,CLR,0.00,VWS V14.01,2013-01-19 17:41:00,
2013-01-19 11:42:00,56.5,34.6,30.15,SSW,206,13.6,20.1,44,0.00,,OVC004,0.00,VWS V14.01,2013-01-19 17:42:00,
2013-01-19 11:44:00,56.7,35.5,30.15,SW,223,20.2,21.2,45,0.00,,OVC004,0.00,VWS V14.01,2013-01-19 17:44:00,
2013-01-19 11:46:00,56.7,34.8,30.15,SW,216,14.7,21.2,44,0.00,,OVC004,0.00,VWS V14.01,2013-01-19 17:46:00,
2013-01-19 11:47:00,56.7,34.8,30.15,South,188,14.7,17.2,44,0.00,,CLR,0.00,VWS V14.01,2013-01-19 17:47:00,
2013-01-19 11:48:00,56.7,34.8,30.15,SW,219,12.5,16.6,44,0.00,,OVC004,0.00,VWS V14.01,2013-01-19 17:48:00,
2013-01-19 11:50:00,56.8,35.7,30.15,SSW,212,10.0,13.1,45,0.00,,OVC004,0.00,VWS V14.01,2013-01-19 17:50:00,
2013-01-19 11:52:00,57.0,35.8,30.15,WSW,245,14.7,17.2,45,0.00,,CLR,0.00,VWS V14.01,2013-01-19 17:52:00,
2013-01-19 11:54:00,57.2,34.5,30.15,SW,221,16.4,22.7,42,0.00,,OVC004,0.00,VWS V14.01,2013-01-19 17:54:00,
2013-01-19 11:56:00,57.2,34.5,30.15,SW,224,15.8,20.1,42,0.00,,OVC004,0.00,VWS V14.01,2013-01-19 17:56:00,
2013-01-19 11:57:00,57.2,34.5,30.15,WSW,247,10.8,22.7,42,0.00,,CLR,0.00,VWS V14.01,2013-01-19 17:57:00,
2013-01-19 11:58:00,57.2,34.5,30.15,WSW,246,15.3,22.7,42,0.00,,OVC004,0.00,VWS V14.01,2013-01-19 17:58:00,
2013-01-19 12:00:00,57.2,34.5,30.15,SW,219,16.4,20.1,42,0.00,,OVC004,0.00,VWS V14.01,2013-01-19 18:00:00,
2013-01-19 12:02:00,57.4,34.6,30.15,SSW,201,15.8,20.1,42,0.00,,OVC004,0.00,VWS V14.01,2013-01-19 18:02:00,
2013-01-19 12:03:00,57.4,34.6,30.15,WSW,240,10.8,20.1,42,0.00,,CLR,0.00,VWS V14.01,2013-01-19 18:03:00,
2013-01-19 12:04:00,57.4,34.6,30.15,WSW,240,13.6,20.1,42,0.00,,OVC004,0.00,VWS V14.01,2013-01-19 18:04:00,
2013-01-19 12:06:00,57.6,34.8,30.15,WSW,242,15.8,17.2,42,0.00,,OVC004,0.00,VWS V14.01,2013-01-19 18:06:00,
2013-01-19 12:08:00,57.6,34.8,30.15,SW,229,19.1,20.6,42,0.00,,CLR,0.00,VWS V14.01,2013-01-19 18:08:00,
2013-01-19 12:10:00,57.7,35.0,30.15,WSW,243,13.0,16.6,42,0.00,,OVC004,0.00,VWS V14.01,2013-01-19 18:10:00,
2013-01-19 12:12:00,57.9,35.1,30.15,WSW,237,13.0,14.8,42,0.00,,OVC004,0.00,VWS V14.01,2013-01-19 18:12:00,
2013-01-19 12:13:00,57.9,35.1,30.15,WSW,252,15.3,16.0,42,0.00,,CLR,0.00,VWS V14.01,2013-01-19 18:13:00,
2013-01-19 12:14:00,58.1,35.3,30.15,SW,219,9.4,16.0,42,0.00,,OVC004,0.00,VWS V14.01,2013-01-19 18:14:00,
2013-01-19 12:16:00,58.3,35.5,30.15,SW,234,18.0,18.9,42,0.00,,OVC004,0.00,VWS V14.01,2013-01-19 18:16:00,
2013-01-19 12:18:00,58.6,35.0,30.15,SW,219,10.8,20.1,41,0.00,,CLR,0.00,VWS V14.01,2013-01-19 18:18:00,
2013-01-19 12:20:00,58.6,35.0,30.15,SW,229,15.3,17.2,41,0.00,,OVC004,0.00,VWS V14.01,2013-01-19 18:20:00,
2013-01-19 12:22:00,58.6,35.0,30.15,WSW,241,15.8,16.6,41,0.00,,OVC004,0.00,VWS V14.01,2013-01-19 18:22:00,
2013-01-19 12:23:00,58.8,35.1,30.15,SSW,199,9.4,16.6,41,0.00,,CLR,0.00,VWS V14.01,2013-01-19 18:23:00,
2013-01-19 12:24:00,58.8,35.1,30.12,SSW,205,10.0,16.6,41,0.00,,OVC004,0.00,VWS V14.01,2013-01-19 18:24:00,
2013-01-19 12:26:00,58.8,35.1,30.12,WSW,239,10.3,17.2,41,0.00,,OVC004,0.00,VWS V14.01,2013-01-19 18:26:00,
2013-01-19 12:28:00,59.0,34.5,30.12,WSW,244,10.8,17.2,40,0.00,,CLR,0.00,VWS V14.01,2013-01-19 18:28:00,
2013-01-19 12:30:00,59.0,34.5,30.12,SSW,203,13.6,17.2,40,0.00,,OVC004,0.00,VWS V14.01,2013-01-19 18:30:00,
2013-01-19 12:32:00,59.0,34.5,30.12,SW,221,13.0,21.8,40,0.00,,OVC004,0.00,VWS V14.01,2013-01-19 18:32:00,
2013-01-19 12:33:00,59.2,34.6,30.12,WSW,239,16.4,20.1,40,0.00,,CLR,0.00,VWS V14.01,2013-01-19 18:33:00,
2013-01-19 12:34:00,59.2,34.6,30.12,SSW,209,14.1,18.9,40,0.00,,OVC004,0.00,VWS V14.01,2013-01-19 18:34:00,
2013-01-19 12:36:00,59.2,34.6,30.12,WSW,245,13.0,19.5,40,0.00,,OVC004,0.00,VWS V14.01,2013-01-19 18:36:00,
2013-01-19 12:38:00,59.4,34.8,30.12,SSW,212,13.0,20.1,40,0.00,,CLR,0.00,VWS V14.01,2013-01-19 18:38:00,
2013-01-19 12:40:00,59.2,34.6,30.12,SW,223,10.8,17.2,40,0.00,,OVC004,0.00,VWS V14.01,2013-01-19 18:40:00,
2013-01-19 12:42:00,59.2,34.6,30.12,WSW,253,14.1,18.9,40,0.00,,OVC004,0.00,VWS V14.01,2013-01-19 18:42:00,
2013-01-19 12:43:00,59.4,34.8,30.12,West,265,13.0,18.9,40,0.00,,CLR,0.00,VWS V14.01,2013-01-19 18:43:00,
2013-01-19 12:44:00,59.4,34.8,30.12,SW,235,18.0,18.9,40,0.00,,OVC004,0.00,VWS V14.01,2013-01-19 18:44:00,
2013-01-19 12:46:00,59.4,34.8,30.12,South,186,7.8,17.2,40,0.00,,OVC004,0.00,VWS V14.01,2013-01-19 18:46:00,
2013-01-19 12:48:00,59.7,35.1,30.12,SSW,197,10.0,16.6,40,0.00,,CLR,0.00,VWS V14.01,2013-01-19 18:48:00,
2013-01-19 12:50:00,59.7,35.1,30.12,SSW,210,15.8,22.1,40,0.00,,OVC004,0.00,VWS V14.01,2013-01-19 18:50:00,
2013-01-19 12:52:00,59.9,35.3,30.12,WSW,237,7.8,16.6,40,0.00,,OVC004,0.00,VWS V14.01,2013-01-19 18:52:00,
2013-01-19 12:54:00,60.1,35.5,30.12,SSW,196,15.3,16.0,40,0.00,,CLR,0.00,VWS V14.01,2013-01-19 18:54:00,
2013-01-19 12:56:00,60.1,35.5,30.12,SW,220,15.8,20.1,40,0.00,,OVC004,0.00,VWS V14.01,2013-01-19 18:56:00,
2013-01-19 12:58:00,60.3,34.8,30.12,SW,218,13.0,22.7,38,0.00,,OVC004,0.00,VWS V14.01,2013-01-19 18:58:00,
2013-01-19 12:59:00,60.3,34.8,30.12,SW,224,10.0,22.7,38,0.00,,CLR,0.00,VWS V14.01,2013-01-19 18:59:00,
2013-01-19 13:00:00,60.3,34.8,30.12,South,184,19.1,20.1,38,0.00,,OVC004,0.00,VWS V14.01,2013-01-19 19:00:00,
2013-01-19 13:02:00,60.3,34.8,30.12,SW,216,15.8,20.1,38,0.00,,OVC004,0.00,VWS V14.01,2013-01-19 19:02:00,
2013-01-19 13:04:00,60.1,34.6,30.12,SW,230,15.8,22.1,38,0.00,,CLR,0.00,VWS V14.01,2013-01-19 19:04:00,
2013-01-19 13:06:00,60.1,34.6,30.12,WSW,252,4.4,17.2,38,0.00,,OVC004,0.00,VWS V14.01,2013-01-19 19:06:00,
2013-01-19 13:08:00,60.3,34.8,30.12,SSW,202,18.6,24.4,38,0.00,,OVC004,0.00,VWS V14.01,2013-01-19 19:08:00,
2013-01-19 13:09:00,60.3,34.8,30.09,SW,228,19.1,24.4,38,0.00,,CLR,0.00,VWS V14.01,2013-01-19 19:09:00,
2013-01-19 13:10:00,60.3,34.8,30.09,SW,233,13.6,20.1,38,0.00,,OVC004,0.00,VWS V14.01,2013-01-19 19:10:00,
2013-01-19 13:12:00,60.3,34.8,30.09,West,267,16.4,17.2,38,0.00,,OVC004,0.00,VWS V14.01,2013-01-19 19:12:00,
2013-01-19 13:14:00,60.4,34.9,30.09,WSW,244,16.4,20.1,38,0.00,,CLR,0.00,VWS V14.01,2013-01-19 19:14:00,
2013-01-19 13:16:00,60.6,35.1,30.09,SSW,204,12.5,20.1,38,0.00,,OVC004,0.00,VWS V14.01,2013-01-19 19:16:00,
2013-01-19 13:18:00,60.8,34.4,30.09,WSW,246,19.1,21.2,37,0.00,,OVC004,0.00,VWS V14.01,2013-01-19 19:18:00,
2013-01-19 13:20:00,60.8,34.4,30.09,South,183,10.3,20.1,37,0.00,,CLR,0.00,VWS V14.01,2013-01-19 19:20:00,
2013-01-19 13:22:00,61.0,34.5,30.09,SW,228,16.4,20.6,37,0.00,,OVC004,0.00,VWS V14.01,2013-01-19 19:22:00,
2013-01-19 13:24:00,60.8,34.4,30.09,WSW,251,15.8,21.2,37,0.00,,OVC004,0.00,VWS V14.01,2013-01-19 19:24:00,
2013-01-19 13:25:00,60.8,34.4,30.09,WSW,246,13.6,18.3,37,0.00,,CLR,0.00,VWS V14.01,2013-01-19 19:25:00,
2013-01-19 13:26:00,60.8,34.4,30.09,WSW,240,13.6,20.1,37,0.00,,OVC004,0.00,VWS V14.01,2013-01-19 19:26:00,
2013-01-19 13:28:00,61.0,34.5,30.09,SW,223,16.9,22.7,37,0.00,,OVC004,0.00,VWS V14.01,2013-01-19 19:28:00,
2013-01-19 13:30:00,61.0,34.5,30.09,WSW,239,10.8,17.7,37,0.00,,CLR,0.00,VWS V14.01,2013-01-19 19:30:00,
2013-01-19 13:32:00,61.2,34.7,30.09,SW,225,13.6,19.5,37,0.00,,OVC004,0.00,VWS V14.01,2013-01-19 19:32:00,
2013-01-19 13:34:00,61.2,34.7,30.09,WSW,241,16.4,20.1,37,0.00,,OVC004,0.00,VWS V14.01,2013-01-19 19:34:00,
2013-01-19 13:35:00,61.3,34.8,30.09,SW,226,13.6,20.1,37,0.00,,CLR,0.00,VWS V14.01,2013-01-19 19:35:00,
2013-01-19 13:36:00,61.3,34.8,30.09,SW,224,13.6,20.1,37,0.00,,OVC004,0.00,VWS V14.01,2013-01-19 19:36:00,
2013-01-19 13:38:00,61.3,34.8,30.09,SW,214,13.0,16.6,37,0.00,,OVC004,0.00,VWS V14.01,2013-01-19 19:38:00,
2013-01-19 13:40:00,61.5,35.0,30.09,WSW,248,13.6,14.2,37,0.00,,CLR,0.00,VWS V14.01,2013-01-19 19:40:00,
2013-01-19 13:42:00,61.7,34.2,30.09,WSW,237,20.2,26.2,36,0.00,,OVC004,0.00,VWS V14.01,2013-01-19 19:42:00,
2013-01-19 13:44:00,61.7,34.2,30.09,SSW,203,12.5,21.2,36,0.00,,OVC004,0.00,VWS V14.01,2013-01-19 19:44:00,
2013-01-19 13:45:00,61.7,34.2,30.09,WSW,244,19.7,20.6,36,0.00,,CLR,0.00,VWS V14.01,2013-01-19 19:45:00,
2013-01-19 13:46:00,61.5,34.1,30.09,SSW,212,13.6,20.6,36,0.00,,OVC004,0.00,VWS V14.01,2013-01-19 19:46:00,
2013-01-19 13:48:00,61.3,33.9,30.09,SW,233,13.6,18.9,36,0.00,,OVC004,0.00,VWS V14.01,2013-01-19 19:48:00,
2013-01-19 13:50:00,61.3,33.9,30.09,SW,217,15.8,22.7,36,0.00,,CLR,0.00,VWS V14.01,2013-01-19 19:50:00,
2013-01-19 13:52:00,61.2,33.8,30.09,SW,229,12.5,20.1,36,0.00,,OVC004,0.00,VWS V14.01,2013-01-19 19:52:00,
2013-01-19 13:54:00,61.2,33.8,30.09,SW,219,13.0,24.4,36,0.00,,OVC004,0.00,VWS V14.01,2013-01-19 19:54:00,
2013-01-19 13:55:00,61.2,33.8,30.09,SW,230,13.6,16.0,36,0.00,,CLR,0.00,VWS V14.01,2013-01-19 19:55:00,
2013-01-19 13:56:00,61.2,33.8,30.09,SW,225,19.7,21.8,36,0.00,,OVC004,0.00,VWS V14.01,2013-01-19 19:56:00,
2013-01-19 13:58:00,61.2,33.8,30.09,SSW,195,10.0,20.6,36,0.00,,OVC004,0.00,VWS V14.01,2013-01-19 19:58:00,
2013-01-19 14:00:00,61.3,33.9,30.09,WSW,240,9.4,16.6,36,0.00,,CLR,0.00,VWS V14.01,2013-01-19 20:00:00,
2013-01-19 14:02:00,61.5,34.1,30.09,South,181,10.0,16.6,36,0.00,,OVC004,0.00,VWS V14.01,2013-01-19 20:02:00,
2013-01-19 14:04:00,61.7,34.2,30.09,WSW,257,18.0,18.9,36,0.00,,OVC004,0.00,VWS V14.01,2013-01-19 20:04:00,
2013-01-19 14:05:00,61.9,34.4,30.09,SW,236,13.6,18.9,36,0.00,,CLR,0.00,VWS V14.01,2013-01-19 20:05:00,
2013-01-19 14:06:00,61.9,34.4,30.09,West,262,12.5,18.9,36,0.00,,OVC004,0.00,VWS V14.01,2013-01-19 20:06:00,
2013-01-19 14:08:00,61.9,34.4,30.09,SW,234,10.0,16.6,36,0.00,,OVC004,0.00,VWS V14.01,2013-01-19 20:08:00,
2013-01-19 14:10:00,62.1,34.6,30.09,SW,216,13.0,22.1,36,0.00,,CLR,0.00,VWS V14.01,2013-01-19 20:10:00,
2013-01-19 14:12:00,62.1,34.6,30.09,WSW,238,17.5,18.3,36,0.00,,OVC004,0.00,VWS V14.01,2013-01-19 20:12:00,
2013-01-19 14:14:00,62.1,34.6,30.09,West,262,10.8,20.1,36,0.00,,OVC004,0.00,VWS V14.01,2013-01-19 20:14:00,
2013-01-19 14:15:00,62.1,34.6,30.09,SW,232,13.6,19.5,36,0.00,,CLR,0.00,VWS V14.01,2013-01-19 20:15:00,
2013-01-19 14:16:00,62.1,34.6,30.09,WSW,238,16.9,19.5,36,0.00,,OVC004,0.00,VWS V14.01,2013-01-19 20:16:00,
2013-01-19 14:18:00,62.1,34.6,30.09,WSW,249,18.6,19.5,36,0.00,,OVC004,0.00,VWS V14.01,2013-01-19 20:18:00,
2013-01-19 14:20:00,61.9,34.4,30.09,WSW,248,15.3,20.1,36,0.00,,OVC004,0.00,VWS V14.01,2013-01-19 20:20:00,
2013-01-19 14:21:00,61.9,34.4,30.09,SW,232,15.8,17.7,36,0.00,,CLR,0.00,VWS V14.01,2013-01-19 20:21:00,
2013-01-19 14:22:00,61.9,34.4,30.09,SSW,198,12.5,17.7,36,0.00,,OVC004,0.00,VWS V14.01,2013-01-19 20:22:00,
2013-01-19 14:24:00,61.9,34.4,30.09,SW,222,15.3,16.0,36,0.00,,OVC004,0.00,VWS V14.01,2013-01-19 20:24:00,
2013-01-19 14:26:00,62.1,34.6,30.09,WSW,246,15.8,19.5,36,0.00,,CLR,0.00,VWS V14.01,2013-01-19 20:26:00,
2013-01-19 14:28:00,62.1,34.6,30.09,WSW,251,13.0,14.8,36,0.00,,OVC004,0.00,VWS V14.01,2013-01-19 20:28:00,
2013-01-19 14:30:00,62.2,34.7,30.09,West,261,16.4,22.1,36,0.00,,OVC004,0.00,VWS V14.01,2013-01-19 20:30:00,
2013-01-19 14:31:00,62.2,34.7,30.09,WSW,238,13.0,22.1,36,0.00,,CLR,0.00,VWS V14.01,2013-01-19 20:31:00,
2013-01-19 14:32:00,62.2,34.7,30.09,SW,214,16.4,17.2,36,0.00,,OVC004,0.00,VWS V14.01,2013-01-19 20:32:00,
2013-01-19 14:34:00,62.2,34.7,30.09,SSW,210,10.8,17.2,36,0.00,,OVC004,0.00,VWS V14.01,2013-01-19 20:34:00,
2013-01-19 14:36:00,62.2,34.7,30.09,SW,233,10.8,19.5,36,0.00,,OVC004,0.00,VWS V14.01,2013-01-19 20:36:00,
2013-01-19 14:37:00,62.2,34.7,30.09,SW,233,12.5,19.5,36,0.00,,CLR,0.00,VWS V14.01,2013-01-19 20:37:00,
2013-01-19 14:38:00,62.2,34.7,30.09,SW,216,12.5,17.2,36,0.00,,OVC004,0.00,VWS V14.01,2013-01-19 20:38:00,
2013-01-19 14:40:00,62.4,34.9,30.09,WSW,256,19.1,20.1,36,0.00,,OVC004,0.00,VWS V14.01,2013-01-19 20:40:00,
2013-01-19 14:42:00,62.4,34.9,30.09,SW,233,13.0,22.1,36,0.00,,CLR,0.00,VWS V14.01,2013-01-19 20:42:00,
2013-01-19 14:44:00,62.2,34.7,30.09,SW,220,15.3,20.1,36,0.00,,OVC004,0.00,VWS V14.01,2013-01-19 20:44:00,
2013-01-19 14:46:00,62.2,34.7,30.09,SW,220,14.7,16.6,36,0.00,,OVC004,0.00,VWS V14.01,2013-01-19 20:46:00,
2013-01-19 14:47:00,62.4,34.9,30.09,WSW,258,13.0,15.4,36,0.00,,CLR,0.00,VWS V14.01,2013-01-19 20:47:00,
2013-01-19 14:48:00,62.4,34.9,30.09,WSW,252,13.0,16.6,36,0.00,,OVC004,0.00,VWS V14.01,2013-01-19 20:48:00,
2013-01-19 14:50:00,62.4,34.9,30.09,WSW,251,16.4,19.5,36,0.00,,OVC004,0.00,VWS V14.01,2013-01-19 20:50:00,
2013-01-19 14:52:00,62.4,34.9,30.09,SW,230,19.1,24.4,36,0.00,,CLR,0.00,VWS V14.01,2013-01-19 20:52:00,
2013-01-19 14:54:00,62.2,34.7,30.09,West,261,12.5,24.4,36,0.00,,OVC004,0.00,VWS V14.01,2013-01-19 20:54:00,
2013-01-19 14:56:00,62.2,34.7,30.09,WSW,249,15.3,22.7,36,0.00,,OVC004,0.00,VWS V14.01,2013-01-19 20:56:00,
2013-01-19 14:57:00,62.2,34.7,30.09,WSW,247,14.7,16.6,36,0.00,,CLR,0.00,VWS V14.01,2013-01-19 20:57:00,
2013-01-19 14:58:00,62.2,34.7,30.09,West,259,10.8,16.6,36,0.00,,OVC004,0.00,VWS V14.01,2013-01-19 20:58:00,
2013-01-19 15:00:00,62.4,34.9,30.09,SW,226,9.4,20.1,36,0.00,,OVC004,0.00,VWS V14.01,2013-01-19 21:00:00,
2013-01-19 15:02:00,62.6,34.1,30.09,WSW,244,15.3,17.2,34,0.00,,CLR,0.00,VWS V14.01,2013-01-19 21:02:00,
2013-01-19 15:04:00,62.6,34.1,30.09,SW,230,10.8,17.2,34,0.00,,OVC004,0.00,VWS V14.01,2013-01-19 21:04:00,
2013-01-19 15:06:00,62.6,34.1,30.09,SSW,197,7.2,13.1,34,0.00,,OVC004,0.00,VWS V14.01,2013-01-19 21:06:00,
2013-01-19 15:07:00,62.8,35.2,30.09,SSW,203,10.0,17.2,36,0.00,,CLR,0.00,VWS V14.01,2013-01-19 21:07:00,
2013-01-19 15:08:00,62.8,35.2,30.09,SSW,198,10.8,17.2,36,0.00,,OVC004,0.00,VWS V14.01,2013-01-19 21:08:00,
2013-01-19 15:10:00,62.8,34.3,30.09,SSW,193,11.9,14.2,34,0.00,,OVC004,0.00,VWS V14.01,2013-01-19 21:10:00,
2013-01-19 15:12:00,62.6,35.0,30.09,South,176,11.4,16.6,36,0.00,,OVC004,0.00,VWS V14.01,2013-01-19 21:12:00,
2013-01-19 15:13:00,62.6,35.0,30.09,SSW,193,12.5,16.6,36,0.00,,CLR,0.00,VWS V14.01,2013-01-19 21:13:00,
2013-01-19 15:14:00,62.6,35.0,30.09,SSW,212,11.4,16.0,36,0.00,,OVC004,0.00,VWS V14.01,2013-01-19 21:14:00,
2013-01-19 15:16:00,62.2,34.7,30.09,SW,230,10.3,21.2,36,0.00,,OVC004,0.00,VWS V14.01,2013-01-19 21:16:00,
2013-01-19 15:18:00,62.2,34.7,30.09,WSW,238,10.3,14.2,36,0.00,,CLR,0.00,VWS V14.01,2013-01-19 21:18:00,
2013-01-19 15:20:00,62.1,34.6,30.09,SW,227,16.4,19.5,36,0.00,,OVC004,0.00,VWS V14.01,2013-01-19 21:20:00,
2013-01-19 15:22:00,62.1,34.6,30.09,SW,226,13.0,17.2,36,0.00,,OVC004,0.00,VWS V14.01,2013-01-19 21:22:00,
2013-01-19 15:23:00,62.1,34.6,30.09,SW,215,10.3,14.8,36,0.00,,CLR,0.00,VWS V14.01,2013-01-19 21:23:00,
2013-01-19 15:24:00,62.1,34.6,30.09,SW,218,10.0,16.6,36,0.00,,OVC004,0.00,VWS V14.01,2013-01-19 21:24:00,
2013-01-19 15:26:00,62.1,34.6,30.09,SSW,200,10.3,11.3,36,0.00,,OVC004,0.00,VWS V14.01,2013-01-19 21:26:00,
2013-01-19 15:28:00,62.1,34.6,30.09,SSW,205,13.6,20.1,36,0.00,,CLR,0.00,VWS V14.01,2013-01-19 21:28:00,
2013-01-19 15:30:00,62.1,34.6,30.09,WSW,237,9.4,19.5,36,0.00,,OVC004,0.00,VWS V14.01,2013-01-19 21:30:00,
2013-01-19 15:32:00,62.1,34.6,30.09,SW,227,15.8,16.6,36,0.00,,OVC004,0.00,VWS V14.01,2013-01-19 21:32:00,
2013-01-19 15:33:00,62.1,34.6,30.09,SSW,211,12.5,20.6,36,0.00,,CLR,0.00,VWS V14.01,2013-01-19 21:33:00,
2013-01-19 15:34:00,61.9,34.4,30.09,SW,229,15.8,20.6,36,0.00,,OVC004,0.00,VWS V14.01,2013-01-19 21:34:00,
2013-01-19 15:36:00,61.9,34.4,30.09,SW,233,15.8,21.2,36,0.00,,OVC004,0.00,VWS V14.01,2013-01-19 21:36:00,
2013-01-19 15:38:00,61.9,34.4,30.09,SW,229,10.8,16.6,36,0.00,,OVC004,0.00,VWS V14.01,2013-01-19 21:38:00,
2013-01-19 15:39:00,61.9,34.4,30.09,SW,226,10.8,14.2,36,0.00,,CLR,0.00,VWS V14.01,2013-01-19 21:39:00,
2013-01-19 15:40:00,61.9,34.4,30.09,WSW,246,12.5,17.2,36,0.00,,OVC004,0.00,VWS V14.01,2013-01-19 21:40:00,
2013-01-19 15:42:00,61.9,34.4,30.09,WSW,250,10.3,13.1,36,0.00,,OVC004,0.00,VWS V14.01,2013-01-19 21:42:00,
2013-01-19 15:44:00,61.9,34.4,30.09,WSW,237,12.5,17.2,36,0.00,,CLR,0.00,VWS V14.01,2013-01-19 21:44:00,
2013-01-19 15:46:00,61.9,34.4,30.09,SSW,209,10.8,16.6,36,0.00,,OVC004,0.00,VWS V14.01,2013-01-19 21:46:00,
2013-01-19 15:48:00,61.9,34.4,30.09,SW,219,15.3,17.2,36,0.00,,OVC004,0.00,VWS V14.01,2013-01-19 21:48:00,
2013-01-19 15:49:00,61.9,34.4,30.09,WSW,245,10.0,17.2,36,0.00,,CLR,0.00,VWS V14.01,2013-01-19 21:49:00,
2013-01-19 15:50:00,61.9,34.4,30.09,SW,229,15.3,16.0,36,0.00,,OVC004,0.00,VWS V14.01,2013-01-19 21:50:00,
2013-01-19 15:52:00,61.9,34.4,30.09,WSW,241,10.0,16.0,36,0.00,,OVC004,0.00,VWS V14.01,2013-01-19 21:52:00,
2013-01-19 15:54:00,61.9,34.4,30.09,SW,218,10.8,16.6,36,0.00,,CLR,0.00,VWS V14.01,2013-01-19 21:54:00,
2013-01-19 15:56:00,61.9,34.4,30.09,SW,224,10.0,13.7,36,0.00,,OVC004,0.00,VWS V14.01,2013-01-19 21:56:00,
2013-01-19 15:58:00,61.9,34.4,30.09,SW,218,10.3,16.6,36,0.00,,OVC004,0.00,VWS V14.01,2013-01-19 21:58:00,
2013-01-19 15:59:00,61.9,34.4,30.09,WSW,251,10.3,16.6,36,0.00,,CLR,0.00,VWS V14.01,2013-01-19 21:59:00,
2013-01-19 16:00:00,61.9,34.4,30.09,SW,221,13.0,13.7,36,0.00,,OVC004,0.00,VWS V14.01,2013-01-19 22:00:00,
2013-01-19 16:02:00,61.9,34.4,30.09,SW,220,7.8,13.7,36,0.00,,OVC004,0.00,VWS V14.01,2013-01-19 22:02:00,
2013-01-19 16:04:00,61.7,34.2,30.09,WSW,238,10.0,13.7,36,0.00,,OVC004,0.00,VWS V14.01,2013-01-19 22:04:00,
2013-01-19 16:05:00,61.7,34.2,30.09,SSW,199,10.3,13.7,36,0.00,,CLR,0.00,VWS V14.01,2013-01-19 22:05:00,
2013-01-19 16:06:00,61.7,34.2,30.09,SSW,212,6.7,13.7,36,0.00,,OVC004,0.00,VWS V14.01,2013-01-19 22:06:00,
2013-01-19 16:08:00,61.7,34.2,30.09,South,177,10.0,11.3,36,0.00,,OVC004,0.00,VWS V14.01,2013-01-19 22:08:00,
2013-01-19 16:10:00,61.7,34.2,30.09,SSW,205,10.0,14.2,36,0.00,,CLR,0.00,VWS V14.01,2013-01-19 22:10:00,
2013-01-19 16:12:00,61.7,34.2,30.09,WSW,237,10.8,16.0,36,0.00,,OVC004,0.00,VWS V14.01,2013-01-19 22:12:00,
2013-01-19 16:14:00,61.7,34.2,30.09,SSW,199,7.8,13.7,36,0.00,,OVC004,0.00,VWS V14.01,2013-01-19 22:14:00,
2013-01-19 16:15:00,61.7,34.2,30.09,SW,227,13.6,14.2,36,0.00,,CLR,0.00,VWS V14.01,2013-01-19 22:15:00,
2013-01-19 16:16:00,61.7,34.2,30.09,WSW,238,9.4,15.4,36,0.00,,OVC004,0.00,VWS V14.01,2013-01-19 22:16:00,
2013-01-19 16:18:00,61.7,34.2,30.09,SW,231,7.8,13.1,36,0.00,,OVC004,0.00,VWS V14.01,2013-01-19 22:18:00,
2013-01-19 16:20:00,61.5,34.1,30.09,WSW,237,12.5,14.2,36,0.00,,CLR,0.00,VWS V14.01,2013-01-19 22:20:00,
2013-01-19 16:22:00,61.5,34.1,30.09,SW,225,10.8,13.1,36,0.00,,OVC004,0.00,VWS V14.01,2013-01-19 22:22:00,
2013-01-19 16:24:00,61.5,34.1,30.09,SW,223,7.8,11.3,36,0.00,,OVC004,0.00,VWS V14.01,2013-01-19 22:24:00,
2013-01-19 16:25:00,61.5,34.1,30.09,West,260,12.5,13.1,36,0.00,,CLR,0.00,VWS V14.01,2013-01-19 22:25:00,
2013-01-19 16:26:00,61.5,34.1,30.09,WSW,239,10.8,13.1,36,0.00,,OVC004,0.00,VWS V14.01,2013-01-19 22:26:00,
2013-01-19 16:28:00,61.5,34.1,30.09,South,184,13.0,13.7,36,0.00,,OVC004,0.00,VWS V14.01,2013-01-19 22:28:00,
2013-01-19 16:30:00,61.3,33.9,30.09,SSW,207,10.3,10.8,36,0.00,,CLR,0.00,VWS V14.01,2013-01-19 22:30:00,
2013-01-19 16:32:00,61.3,33.9,30.09,SSW,207,12.5,13.1,36,0.00,,OVC004,0.00,VWS V14.01,2013-01-19 22:32:00,
2013-01-19 16:34:00,61.2,33.8,30.09,SW,217,10.3,13.7,36,0.00,,OVC004,0.00,VWS V14.01,2013-01-19 22:34:00,
2013-01-19 16:35:00,61.2,33.8,30.09,SW,218,7.8,11.3,36,0.00,,CLR,0.00,VWS V14.01,2013-01-19 22:35:00,
2013-01-19 16:36:00,61.2,33.8,30.09,SSW,208,6.7,11.3,36,0.00,,OVC004,0.00,VWS V14.01,2013-01-19 22:36:00,
2013-01-19 16:38:00,61.0,33.6,30.09,SW,224,10.0,11.3,36,0.00,,OVC004,0.00,VWS V14.01,2013-01-19 22:38:00,
2013-01-19 16:40:00,61.0,33.6,30.09,SW,229,10.3,11.9,36,0.00,,CLR,0.00,VWS V14.01,2013-01-19 22:40:00,
2013-01-19 16:42:00,61.0,33.6,30.09,SSW,203,6.7,11.9,36,0.00,,OVC004,0.00,VWS V14.01,2013-01-19 22:42:00,
2013-01-19 16:44:00,60.8,33.5,30.09,SW,225,7.8,9.9,36,0.00,,OVC004,0.00,VWS V14.01,2013-01-19 22:44:00,
2013-01-19 16:45:00,60.8,33.5,30.09,SSW,201,6.7,8.1,36,0.00,,CLR,0.00,VWS V14.01,2013-01-19 22:45:00,
2013-01-19 16:46:00,60.8,33.5,30.09,SSW,197,13.6,14.2,36,0.00,,OVC004,0.00,VWS V14.01,2013-01-19 22:46:00,
2013-01-19 16:48:00,60.8,33.5,30.09,SSW,201,9.4,14.2,36,0.00,,OVC004,0.00,VWS V14.01,2013-01-19 22:48:00,
2013-01-19 16:50:00,60.6,34.2,30.09,SW,218,7.2,10.5,37,0.00,,CLR,0.00,VWS V14.01,2013-01-19 22:50:00,
2013-01-19 16:52:00,60.6,34.2,30.09,SSW,211,7.2,9.9,37,0.00,,OVC004,0.00,VWS V14.01,2013-01-19 22:52:00,
2013-01-19 16:54:00,60.4,34.0,30.09,SW,230,10.0,11.3,37,0.00,,OVC004,0.00,VWS V14.01,2013-01-19 22:54:00,
2013-01-19 16:56:00,60.4,34.0,30.09,SSW,209,7.2,10.5,37,0.00,,CLR,0.00,VWS V14.01,2013-01-19 22:56:00,
2013-01-19 16:58:00,60.3,33.9,30.09,SSW,204,6.7,11.9,37,0.00,,OVC004,0.00,VWS V14.01,2013-01-19 22:58:00,
2013-01-19 17:00:00,60.3,33.9,30.09,WSW,246,9.4,9.9,37,0.00,,OVC004,0.00,VWS V14.01,2013-01-19 23:00:00,
2013-01-19 17:01:00,60.1,33.7,30.09,SW,225,10.8,11.3,37,0.00,,CLR,0.00,VWS V14.01,2013-01-19 23:01:00,
2013-01-19 17:02:00,60.1,33.7,30.09,WSW,241,9.4,11.3,37,0.00,,OVC004,0.00,VWS V14.01,2013-01-19 23:02:00,
2013-01-19 17:06:00,59.9,33.6,30.09,SSW,212,10.0,10.8,37,0.00,,CLR,0.00,VWS V14.01,2013-01-19 23:06:00,
2013-01-19 17:08:00,59.7,33.4,30.09,SW,218,7.8,10.5,37,0.00,,OVC004,0.00,VWS V14.01,2013-01-19 23:08:00,
2013-01-19 17:10:00,59.5,33.2,30.09,SSW,209,9.4,13.7,37,0.00,,OVC004,0.00,VWS V14.01,2013-01-19 23:10:00,
2013-01-19 17:11:00,59.4,33.1,30.09,WSW,244,7.8,9.9,37,0.00,,CLR,0.00,VWS V14.01,2013-01-19 23:11:00,
2013-01-19 17:12:00,59.4,33.1,30.09,SW,214,7.8,9.9,37,0.00,,OVC004,0.00,VWS V14.01,2013-01-19 23:12:00,
2013-01-19 17:14:00,59.2,32.9,30.09,SSW,211,6.7,9.9,37,0.00,,OVC004,0.00,VWS V14.01,2013-01-19 23:14:00,
2013-01-19 17:16:00,59.0,32.8,30.09,WSW,257,7.2,9.9,37,0.00,,OVC004,0.00,VWS V14.01,2013-01-19 23:16:00,
2013-01-19 17:17:00,59.0,32.8,30.09,SSW,204,5.0,9.9,37,0.00,,CLR,0.00,VWS V14.01,2013-01-19 23:17:00,
2013-01-19 17:18:00,58.8,33.5,30.09,SW,222,10.0,10.5,38,0.00,,OVC004,0.00,VWS V14.01,2013-01-19 23:18:00,
2013-01-19 17:20:00,58.6,33.3,30.09,WSW,257,10.0,10.5,38,0.00,,OVC004,0.00,VWS V14.01,2013-01-19 23:20:00,
2013-01-19 17:22:00,58.5,33.2,30.09,SW,225,7.8,10.8,38,0.00,,CLR,0.00,VWS V14.01,2013-01-19 23:22:00,
2013-01-19 17:24:00,58.3,33.0,30.09,WSW,255,5.5,9.9,38,0.00,,OVC004,0.00,VWS V14.01,2013-01-19 23:24:00,
2013-01-19 17:26:00,58.1,32.8,30.09,SW,221,6.7,7.0,38,0.00,,OVC004,0.00,VWS V14.01,2013-01-19 23:26:00,
2013-01-19 17:27:00,58.1,32.8,30.09,SW,222,6.1,8.1,38,0.00,,CLR,0.00,VWS V14.01,2013-01-19 23:27:00,
2013-01-19 17:28:00,57.9,32.7,30.09,SW,217,6.7,8.1,38,0.00,,OVC004,0.00,VWS V14.01,2013-01-19 23:28:00,
2013-01-19 17:30:00,57.7,32.5,30.09,SW,231,6.7,8.1,38,0.00,,OVC004,0.00,VWS V14.01,2013-01-19 23:30:00,
2013-01-19 17:32:00,57.6,32.3,30.09,SW,232,5.0,7.0,38,0.00,,CLR,0.00,VWS V14.01,2013-01-19 23:32:00,
2013-01-19 17:34:00,57.4,32.2,30.09,SW,234,4.4,7.0,38,0.00,,OVC004,0.00,VWS V14.01,2013-01-19 23:34:00,
2013-01-19 17:36:00,57.2,32.0,30.09,SW,226,5.0,7.0,38,0.00,,OVC004,0.00,VWS V14.01,2013-01-19 23:36:00,
2013-01-19 17:37:00,57.0,31.9,30.09,WSW,237,4.4,7.0,38,0.00,,CLR,0.00,VWS V14.01,2013-01-19 23:37:00,
2013-01-19 17:38:00,56.8,31.7,30.09,SW,236,5.0,7.0,38,0.00,,OVC004,0.00,VWS V14.01,2013-01-19 23:38:00,
2013-01-19 17:40:00,56.7,32.4,30.09,SW,235,6.1,8.1,40,0.00,,OVC004,0.00,VWS V14.01,2013-01-19 23:40:00,
2013-01-19 17:42:00,56.3,32.1,30.09,SW,232,6.1,6.4,40,0.00,,CLR,0.00,VWS V14.01,2013-01-19 23:42:00,
2013-01-19 17:44:00,55.9,31.7,30.09,SW,233,4.4,6.4,40,0.00,,OVC004,0.00,VWS V14.01,2013-01-19 23:44:00,
2013-01-19 17:46:00,55.6,31.4,30.09,WSW,250,4.4,5.2,40,0.00,,OVC004,0.00,VWS V14.01,2013-01-19 23:46:00,
2013-01-19 17:47:00,55.4,31.2,30.09,WSW,240,3.3,5.2,40,0.00,,CLR,0.00,VWS V14.01,2013-01-19 23:47:00,
2013-01-19 17:48:00,55.2,31.1,30.09,WSW,245,3.3,4.7,40,0.00,,OVC004,0.00,VWS V14.01,2013-01-19 23:48:00,
2013-01-19 17:50:00,54.9,31.6,30.09,WSW,249,3.3,5.2,41,0.00,,OVC004,0.00,VWS V14.01,2013-01-19 23:50:00,
2013-01-19 17:52:00,54.5,31.2,30.09,WSW,250,2.8,4.1,41,0.00,,CLR,0.00,VWS V14.01,2013-01-19 23:52:00,
2013-01-19 17:54:00,54.3,31.1,30.09,WSW,250,2.8,4.1,41,0.00,,OVC004,0.00,VWS V14.01,2013-01-19 23:54:00,
2013-01-19 17:56:00,53.8,30.6,30.09,WSW,250,0.0,4.1,41,0.00,,OVC004,0.00,VWS V14.01,2013-01-19 23:56:00,
2013-01-19 17:57:00,53.6,30.4,30.09,WSW,252,3.9,4.7,41,0.00,,CLR,0.00,VWS V14.01,2013-01-19 23:57:00,
2013-01-19 17:58:00,53.4,30.3,30.09,WSW,252,2.8,4.7,41,0.00,,OVC004,0.00,VWS V14.01,2013-01-19 23:58:00,
2013-01-19 18:00:00,53.1,30.0,30.09,WSW,252,2.8,4.1,41,0.00,,OVC004,0.00,VWS V14.01,2013-01-20 00:00:00,
2013-01-19 18:02:00,52.7,30.4,30.09,WSW,252,3.3,3.5,42,0.00,,OVC004,0.00,VWS V14.01,2013-01-20 00:02:00,
2013-01-19 18:03:00,52.5,30.2,30.09,WSW,258,3.9,4.1,42,0.00,,CLR,0.00,VWS V14.01,2013-01-20 00:03:00,
2013-01-19 18:04:00,52.3,30.1,30.09,West,274,3.9,4.7,42,0.00,,OVC004,0.00,VWS V14.01,2013-01-20 00:04:00,
2013-01-19 18:06:00,52.0,29.8,30.09,WNW,286,4.4,5.2,42,0.00,,OVC004,0.00,VWS V14.01,2013-01-20 00:06:00,
2013-01-19 18:08:00,51.6,30.2,30.09,West,278,4.4,5.2,44,0.00,,CLR,0.00,VWS V14.01,2013-01-20 00:08:00,
2013-01-19 18:10:00,51.4,30.0,30.12,West,280,4.4,5.2,44,0.00,,OVC004,0.00,VWS V14.01,2013-01-20 00:10:00,
2013-01-19 18:12:00,51.1,30.4,30.12,WNW,285,3.9,5.2,45,0.00,,OVC004,0.00,VWS V14.01,2013-01-20 00:12:00,
2013-01-19 18:13:00,50.9,30.3,30.12,WNW,285,3.3,4.7,45,0.00,,CLR,0.00,VWS V14.01,2013-01-20 00:13:00,
2013-01-19 18:14:00,50.7,30.1,30.12,WNW,285,3.9,4.1,45,0.00,,OVC004,0.00,VWS V14.01,2013-01-20 00:14:00,
2013-01-19 18:16:00,50.4,29.8,30.12,WNW,287,2.8,5.2,45,0.00,,OVC004,0.00,VWS V14.01,2013-01-20 00:16:00,
2013-01-19 18:18:00,50.0,29.5,30.12,West,281,4.4,7.0,45,0.00,,CLR,0.00,VWS V14.01,2013-01-20 00:18:00,
2013-01-19 18:20:00,49.5,29.7,30.12,West,267,5.0,7.0,46,0.00,,OVC004,0.00,VWS V14.01,2013-01-20 00:20:00,
2013-01-19 18:23:00,49.1,30.0,30.12,West,267,5.0,7.6,48,0.00,,CLR,0.00,VWS V14.01,2013-01-20 00:23:00,
2013-01-19 18:24:00,48.9,29.9,30.12,West,268,5.0,7.6,48,0.00,,OVC004,0.00,VWS V14.01,2013-01-20 00:24:00,
2013-01-19 18:26:00,48.9,30.5,30.12,West,274,5.5,5.8,49,0.00,,OVC004,0.00,VWS V14.01,2013-01-20 00:26:00,
2013-01-19 18:28:00,48.9,30.5,30.12,WNW,282,5.0,6.4,49,0.00,,CLR,0.00,VWS V14.01,2013-01-20 00:28:00,
2013-01-19 18:30:00,48.9,30.5,30.12,WNW,284,3.9,5.2,49,0.00,,OVC004,0.00,VWS V14.01,2013-01-20 00:30:00,
2013-01-19 18:32:00,49.1,30.7,30.12,WNW,284,0.0,4.7,49,0.00,,OVC004,0.00,VWS V14.01,2013-01-20 00:32:00,
2013-01-19 18:33:00,48.9,30.5,30.12,WNW,284,0.0,4.1,49,0.00,,CLR,0.00,VWS V14.01,2013-01-20 00:33:00,
2013-01-19 18:34:00,48.9,30.5,30.12,WNW,284,0.0,0.0,49,0.00,,OVC004,0.00,VWS V14.01,2013-01-20 00:34:00,
2013-01-19 18:36:00,48.9,30.5,30.12,WNW,284,0.0,0.0,49,0.00,,OVC004,0.00,VWS V14.01,2013-01-20 00:36:00,
2013-01-19 18:38:00,48.7,30.4,30.12,West,281,0.0,0.0,49,0.00,,CLR,0.00,VWS V14.01,2013-01-20 00:38:00,
2013-01-19 18:40:00,48.6,30.9,30.12,WSW,258,2.8,4.1,50,0.00,,OVC004,0.00,VWS V14.01,2013-01-20 00:40:00,
2013-01-19 18:42:00,48.4,30.7,30.12,WSW,257,3.3,3.5,50,0.00,,OVC004,0.00,VWS V14.01,2013-01-20 00:42:00,
2013-01-19 18:43:00,48.2,30.5,30.12,WSW,254,3.3,3.5,50,0.00,,CLR,0.00,VWS V14.01,2013-01-20 00:43:00,
2013-01-19 18:44:00,48.2,30.5,30.12,WSW,254,0.0,3.5,50,0.00,,OVC004,0.00,VWS V14.01,2013-01-20 00:44:00,
2013-01-19 18:46:00,47.8,30.2,30.12,WSW,254,0.0,3.5,50,0.00,,OVC004,0.00,VWS V14.01,2013-01-20 00:46:00,
2013-01-19 18:48:00,47.8,30.2,30.12,WSW,254,0.0,0.0,50,0.00,,CLR,0.00,VWS V14.01,2013-01-20 00:48:00,
2013-01-19 18:50:00,47.5,29.9,30.12,WSW,254,0.0,0.0,50,0.00,,OVC004,0.00,VWS V14.01,2013-01-20 00:50:00,
2013-01-19 18:52:00,47.3,30.3,30.12,WSW,254,0.0,0.0,51,0.00,,OVC004,0.00,VWS V14.01,2013-01-20 00:52:00,
2013-01-19 18:53:00,47.3,30.3,30.12,WSW,254,0.0,0.0,51,0.00,,CLR,0.00,VWS V14.01,2013-01-20 00:53:00,
2013-01-19 18:54:00,47.1,30.2,30.15,WSW,254,0.0,0.0,51,0.00,,OVC004,0.00,VWS V14.01,2013-01-20 00:54:00,
2013-01-19 18:56:00,46.9,30.0,30.15,WSW,254,0.0,0.0,51,0.00,,OVC004,0.00,VWS V14.01,2013-01-20 00:56:00,
2013-01-19 18:58:00,46.8,29.8,30.15,WSW,254,0.0,0.0,51,0.00,,OVC004,0.00,VWS V14.01,2013-01-20 00:58:00,
2013-01-19 18:59:00,46.6,29.7,30.15,WSW,254,0.0,0.0,51,0.00,,CLR,0.00,VWS V14.01,2013-01-20 00:59:00,
2013-01-19 19:00:00,46.6,29.7,30.15,WSW,254,0.0,0.0,51,0.00,,OVC004,0.00,VWS V14.01,2013-01-20 01:00:00,
2013-01-19 19:02:00,46.2,30.0,30.15,WSW,254,0.0,0.0,53,0.00,,OVC004,0.00,VWS V14.01,2013-01-20 01:02:00,
2013-01-19 19:04:00,46.0,29.8,30.15,WSW,254,0.0,0.0,53,0.00,,OVC004,0.00,VWS V14.01,2013-01-20 01:04:00,
2013-01-19 19:06:00,45.9,29.6,30.15,WSW,254,0.0,0.0,53,0.00,,CLR,0.00,VWS V14.01,2013-01-20 01:06:00,
2013-01-19 19:08:00,45.7,29.5,30.15,WSW,254,0.0,0.0,53,0.00,,CLR,0.00,VWS V14.01,2013-01-20 01:08:00,
2013-01-19 19:10:00,45.5,29.3,30.15,WSW,254,0.0,0.0,53,0.00,,CLR,0.00,VWS V14.01,2013-01-20 01:10:00,
2013-01-19 19:12:00,45.3,29.7,30.15,WSW,254,0.0,0.0,54,0.00,,CLR,0.00,VWS V14.01,2013-01-20 01:12:00,
2013-01-19 19:14:00,45.3,29.7,30.15,WSW,254,0.0,0.0,54,0.00,,CLR,0.00,VWS V14.01,2013-01-20 01:14:00,
2013-01-19 19:16:00,45.1,29.6,30.15,WSW,254,0.0,0.0,54,0.00,,CLR,0.00,VWS V14.01,2013-01-20 01:16:00,
2013-01-19 19:18:00,45.1,29.6,30.15,WSW,254,0.0,0.0,54,0.00,,OVC004,0.00,VWS V14.01,2013-01-20 01:18:00,
2013-01-19 19:20:00,45.0,30.0,30.15,WSW,254,0.0,0.0,55,0.00,,CLR,0.00,VWS V14.01,2013-01-20 01:20:00,
2013-01-19 19:22:00,44.8,29.8,30.15,WSW,254,0.0,0.0,55,0.00,,OVC004,0.00,VWS V14.01,2013-01-20 01:22:00,
2013-01-19 19:24:00,44.8,29.8,30.15,WSW,254,0.0,0.0,55,0.00,,CLR,0.00,VWS V14.01,2013-01-20 01:24:00,
2013-01-19 19:26:00,44.4,29.5,30.15,WSW,254,0.0,0.0,55,0.00,,OVC004,0.00,VWS V14.01,2013-01-20 01:26:00,
2013-01-19 19:28:00,44.1,29.1,30.15,WSW,254,0.0,0.0,55,0.00,,CLR,0.00,VWS V14.01,2013-01-20 01:28:00,
2013-01-19 19:30:00,43.9,29.5,30.15,WSW,254,0.0,0.0,57,0.00,,OVC004,0.00,VWS V14.01,2013-01-20 01:30:00,
2013-01-19 19:32:00,43.7,29.4,30.15,WSW,254,0.0,0.0,57,0.00,,CLR,0.00,VWS V14.01,2013-01-20 01:32:00,
2013-01-19 19:34:00,43.5,29.2,30.15,WSW,254,0.0,0.0,57,0.00,,CLR,0.00,VWS V14.01,2013-01-20 01:34:00,
2013-01-19 19:36:00,43.3,29.0,30.15,WSW,254,0.0,0.0,57,0.00,,CLR,0.00,VWS V14.01,2013-01-20 01:36:00,
2013-01-19 19:38:00,43.2,28.9,30.15,WSW,254,0.0,0.0,57,0.00,,CLR,0.00,VWS V14.01,2013-01-20 01:38:00,
2013-01-19 19:40:00,43.0,28.7,30.15,WSW,254,0.0,0.0,57,0.00,,CLR,0.00,VWS V14.01,2013-01-20 01:40:00,
2013-01-19 19:42:00,42.8,29.1,30.15,WSW,254,0.0,0.0,58,0.00,,CLR,0.00,VWS V14.01,2013-01-20 01:42:00,
2013-01-19 19:44:00,42.8,29.1,30.15,WSW,254,0.0,0.0,58,0.00,,OVC004,0.00,VWS V14.01,2013-01-20 01:44:00,
2013-01-19 19:46:00,42.8,29.6,30.15,WSW,254,0.0,0.0,59,0.00,,OVC004,0.00,VWS V14.01,2013-01-20 01:46:00,
2013-01-19 19:48:00,42.8,29.6,30.15,WSW,254,0.0,0.0,59,0.00,,OVC004,0.00,VWS V14.01,2013-01-20 01:48:00,
2013-01-19 19:50:00,42.8,29.6,30.15,WSW,254,0.0,0.0,59,0.00,,OVC004,0.00,VWS V14.01,2013-01-20 01:50:00,
2013-01-19 19:52:00,42.6,30.0,30.15,WSW,254,0.0,0.0,61,0.00,,CLR,0.00,VWS V14.01,2013-01-20 01:52:00,
2013-01-19 19:54:00,42.4,29.8,30.15,WSW,254,0.0,0.0,61,0.00,,OVC004,0.00,VWS V14.01,2013-01-20 01:54:00,
2013-01-19 19:56:00,42.4,29.8,30.15,WSW,254,0.0,0.0,61,0.00,,OVC004,0.00,VWS V14.01,2013-01-20 01:56:00,
2013-01-19 19:57:00,42.3,29.7,30.15,WSW,254,0.0,0.0,61,0.00,,CLR,0.00,VWS V14.01,2013-01-20 01:57:00,
2013-01-19 19:58:00,42.3,29.7,30.15,WSW,254,0.0,0.0,61,0.00,,OVC004,0.00,VWS V14.01,2013-01-20 01:58:00,
2013-01-19 20:00:00,42.1,30.0,30.15,WSW,254,0.0,0.0,62,0.00,,OVC004,0.00,VWS V14.01,2013-01-20 02:00:00,
2013-01-19 20:02:00,42.1,30.0,30.15,WSW,254,0.0,0.0,62,0.00,,CLR,0.00,VWS V14.01,2013-01-20 02:02:00,
2013-01-19 20:04:00,42.1,30.0,30.15,WSW,254,0.0,0.0,62,0.00,,OVC004,0.00,VWS V14.01,2013-01-20 02:04:00,
2013-01-19 20:06:00,41.9,29.9,30.15,WSW,254,0.0,0.0,62,0.00,,OVC004,0.00,VWS V14.01,2013-01-20 02:06:00,
2013-01-19 20:08:00,41.7,29.7,30.15,WSW,254,0.0,0.0,62,0.00,,CLR,0.00,VWS V14.01,2013-01-20 02:08:00,
2013-01-19 20:10:00,41.5,30.0,30.18,WSW,254,0.0,0.0,63,0.00,,OVC004,0.00,VWS V14.01,2013-01-20 02:10:00,
2013-01-19 20:12:00,41.2,29.7,30.18,WSW,254,0.0,0.0,63,0.00,,OVC004,0.00,VWS V14.01,2013-01-20 02:12:00,
2013-01-19 20:13:00,41.2,29.7,30.18,WSW,254,0.0,0.0,63,0.00,,CLR,0.00,VWS V14.01,2013-01-20 02:13:00,
2013-01-19 20:14:00,41.0,29.5,30.18,WSW,254,0.0,0.0,63,0.00,,OVC004,0.00,VWS V14.01,2013-01-20 02:14:00,
2013-01-19 20:16:00,40.8,29.4,30.18,WSW,254,0.0,0.0,63,0.00,,OVC004,0.00,VWS V14.01,2013-01-20 02:16:00,
2013-01-19 20:18:00,40.5,29.0,30.18,WSW,254,0.0,0.0,63,0.00,,CLR,0.00,VWS V14.01,2013-01-20 02:18:00,
2013-01-19 20:20:00,40.3,28.8,30.18,WSW,254,0.0,0.0,63,0.00,,OVC004,0.00,VWS V14.01,2013-01-20 02:20:00,
2013-01-19 20:22:00,40.1,29.2,30.18,WSW,254,0.0,0.0,65,0.00,,OVC004,0.00,VWS V14.01,2013-01-20 02:22:00,
2013-01-19 20:23:00,39.9,29.0,30.18,WSW,254,0.0,0.0,65,0.00,,CLR,0.00,VWS V14.01,2013-01-20 02:23:00,
2013-01-19 20:24:00,39.9,29.0,30.18,WSW,254,0.0,0.0,65,0.00,,OVC004,0.00,VWS V14.01,2013-01-20 02:24:00,
2013-01-19 20:26:00,39.7,28.8,30.18,WSW,254,0.0,0.0,65,0.00,,OVC004,0.00,VWS V14.01,2013-01-20 02:26:00,
2013-01-19 20:28:00,39.6,28.7,30.18,WSW,254,0.0,0.0,65,0.00,,CLR,0.00,VWS V14.01,2013-01-20 02:28:00,
2013-01-19 20:30:00,39.6,28.7,30.18,WSW,254,0.0,0.0,65,0.00,,OVC004,0.00,VWS V14.01,2013-01-20 02:30:00,
2013-01-19 20:32:00,39.7,29.3,30.18,WSW,254,0.0,0.0,66,0.00,,CLR,0.00,VWS V14.01,2013-01-20 02:32:00,
2013-01-19 20:34:00,39.7,29.3,30.18,WSW,254,0.0,0.0,66,0.00,,CLR,0.00,VWS V14.01,2013-01-20 02:34:00,
2013-01-19 20:36:00,39.7,29.3,30.18,WSW,254,0.0,0.0,66,0.00,,CLR,0.00,VWS V14.01,2013-01-20 02:36:00,
2013-01-19 20:38:00,39.7,29.3,30.18,SW,234,0.0,0.0,66,0.00,,OVC004,0.00,VWS V14.01,2013-01-20 02:38:00,
2013-01-19 20:40:00,39.6,29.1,30.18,SW,220,4.4,4.7,66,0.00,,OVC004,0.00,VWS V14.01,2013-01-20 02:40:00,
2013-01-19 20:42:00,39.7,29.8,30.18,SSW,207,5.0,5.8,67,0.00,,OVC004,0.00,VWS V14.01,2013-01-20 02:42:00,
2013-01-19 20:44:00,39.7,29.8,30.18,SW,219,5.0,6.4,67,0.00,,CLR,0.00,VWS V14.01,2013-01-20 02:44:00,
2013-01-19 20:46:00,39.7,29.8,30.18,SW,234,5.0,5.2,67,0.00,,CLR,0.00,VWS V14.01,2013-01-20 02:46:00,
2013-01-19 20:48:00,39.9,30.0,30.18,WSW,240,3.3,5.2,67,0.00,,CLR,0.00,VWS V14.01,2013-01-20 02:48:00,
2013-01-19 20:50:00,40.3,30.8,30.18,WSW,240,3.3,4.7,69,0.00,,CLR,0.00,VWS V14.01,2013-01-20 02:50:00,
2013-01-19 20:52:00,40.5,31.0,30.18,WSW,240,0.0,3.5,69,0.00,,OVC004,0.00,VWS V14.01,2013-01-20 02:52:00,
2013-01-19 20:54:00,40.5,31.0,30.18,WSW,240,0.0,0.0,69,0.00,,CLR,0.00,VWS V14.01,2013-01-20 02:54:00,
2013-01-19 20:56:00,40.6,31.1,30.18,WSW,240,0.0,0.0,69,0.00,,CLR,0.00,VWS V14.01,2013-01-20 02:56:00,
2013-01-19 20:58:00,40.6,31.1,30.18,WSW,240,0.0,0.0,69,0.00,,OVC004,0.00,VWS V14.01,2013-01-20 02:58:00,
2013-01-19 21:00:00,40.6,31.1,30.18,WSW,240,0.0,0.0,69,0.00,,CLR,0.00,VWS V14.01,2013-01-20 03:00:00,
2013-01-19 21:02:00,40.6,31.1,30.18,WSW,250,0.0,4.1,69,0.00,,OVC004,0.00,VWS V14.01,2013-01-20 03:02:00,
2013-01-19 21:04:00,40.6,31.1,30.18,WSW,250,2.8,2.9,69,0.00,,OVC004,0.00,VWS V14.01,2013-01-20 03:04:00,
2013-01-19 21:06:00,40.6,31.1,30.18,WSW,250,0.0,2.9,69,0.00,,OVC004,0.00,VWS V14.01,2013-01-20 03:06:00,
2013-01-19 21:08:00,40.6,31.6,30.18,WSW,250,0.0,0.0,70,0.00,,OVC004,0.00,VWS V14.01,2013-01-20 03:08:00,
2013-01-19 21:10:00,40.8,31.8,30.18,WSW,250,0.0,0.0,70,0.00,,OVC004,0.00,VWS V14.01,2013-01-20 03:10:00,
2013-01-19 21:11:00,40.8,31.8,30.18,WSW,250,0.0,0.0,70,0.00,,CLR,0.00,VWS V14.01,2013-01-20 03:11:00,
2013-01-19 21:12:00,41.0,32.0,30.18,WSW,250,0.0,0.0,70,0.00,,OVC004,0.00,VWS V14.01,2013-01-20 03:12:00,
2013-01-19 21:14:00,41.0,32.0,30.18,WSW,250,0.0,0.0,70,0.00,,OVC004,0.00,VWS V14.01,2013-01-20 03:14:00,
2013-01-19 21:16:00,41.2,32.1,30.18,WSW,250,0.0,0.0,70,0.00,,CLR,0.00,VWS V14.01,2013-01-20 03:16:00,
2013-01-19 21:18:00,41.2,31.7,30.18,WSW,250,0.0,0.0,69,0.00,,OVC004,0.00,VWS V14.01,2013-01-20 03:18:00,
2013-01-19 21:20:00,41.0,31.5,30.18,WSW,250,0.0,0.0,69,0.00,,OVC004,0.00,VWS V14.01,2013-01-20 03:20:00,
2013-01-19 21:21:00,41.0,32.0,30.18,WSW,250,0.0,0.0,70,0.00,,CLR,0.00,VWS V14.01,2013-01-20 03:21:00,
2013-01-19 21:22:00,41.0,32.0,30.18,WSW,250,0.0,0.0,70,0.00,,OVC004,0.00,VWS V14.01,2013-01-20 03:22:00,
2013-01-19 21:24:00,41.2,32.1,30.18,WSW,250,0.0,0.0,70,0.00,,OVC004,0.00,VWS V14.01,2013-01-20 03:24:00,
2013-01-19 21:26:00,41.2,32.1,30.18,WSW,250,0.0,0.0,70,0.00,,CLR,0.00,VWS V14.01,2013-01-20 03:26:00,
2013-01-19 21:28:00,41.2,32.1,30.18,WSW,250,0.0,0.0,70,0.00,,OVC004,0.00,VWS V14.01,2013-01-20 03:28:00,
2013-01-19 21:30:00,41.0,32.0,30.18,WSW,250,0.0,0.0,70,0.00,,OVC004,0.00,VWS V14.01,2013-01-20 03:30:00,
2013-01-19 21:31:00,41.0,32.0,30.18,WSW,250,0.0,0.0,70,0.00,,CLR,0.00,VWS V14.01,2013-01-20 03:31:00,
2013-01-19 21:32:00,41.0,32.0,30.18,WSW,250,0.0,0.0,70,0.00,,OVC004,0.00,VWS V14.01,2013-01-20 03:32:00,
2013-01-19 21:34:00,40.8,31.8,30.18,WSW,250,0.0,0.0,70,0.00,,OVC004,0.00,VWS V14.01,2013-01-20 03:34:00,
2013-01-19 21:36:00,40.6,31.6,30.18,WSW,250,0.0,0.0,70,0.00,,CLR,0.00,VWS V14.01,2013-01-20 03:36:00,
2013-01-19 21:38:00,40.5,31.5,30.18,WSW,250,0.0,0.0,70,0.00,,OVC004,0.00,VWS V14.01,2013-01-20 03:38:00,
2013-01-19 21:40:00,40.5,31.5,30.18,WSW,250,0.0,0.0,70,0.00,,OVC004,0.00,VWS V14.01,2013-01-20 03:40:00,
2013-01-19 21:41:00,40.5,31.5,30.18,WSW,250,0.0,0.0,70,0.00,,CLR,0.00,VWS V14.01,2013-01-20 03:41:00,
2013-01-19 21:42:00,40.5,31.5,30.18,WSW,250,0.0,0.0,70,0.00,,OVC004,0.00,VWS V14.01,2013-01-20 03:42:00,
2013-01-19 21:44:00,40.3,31.3,30.18,WSW,250,0.0,0.0,70,0.00,,OVC004,0.00,VWS V14.01,2013-01-20 03:44:00,
2013-01-19 21:46:00,39.9,30.9,30.18,WSW,250,0.0,0.0,70,0.00,,CLR,0.00,VWS V14.01,2013-01-20 03:46:00,
2013-01-19 21:48:00,39.9,30.9,30.18,WSW,250,0.0,0.0,70,0.00,,OVC004,0.00,VWS V14.01,2013-01-20 03:48:00,
2013-01-19 21:50:00,39.7,30.8,30.18,WSW,250,0.0,0.0,70,0.00,,OVC004,0.00,VWS V14.01,2013-01-20 03:50:00,
2013-01-19 21:52:00,39.6,30.6,30.18,WSW,250,0.0,0.0,70,0.00,,CLR,0.00,VWS V14.01,2013-01-20 03:52:00,
2013-01-19 21:54:00,39.4,30.4,30.18,WSW,250,0.0,0.0,70,0.00,,OVC004,0.00,VWS V14.01,2013-01-20 03:54:00,
2013-01-19 21:56:00,39.2,30.2,30.18,WSW,250,0.0,0.0,70,0.00,,OVC004,0.00,VWS V14.01,2013-01-20 03:56:00,
2013-01-19 21:57:00,39.0,30.5,30.18,WSW,250,0.0,0.0,71,0.00,,CLR,0.00,VWS V14.01,2013-01-20 03:57:00,
2013-01-19 21:58:00,39.0,30.5,30.18,WSW,250,0.0,0.0,71,0.00,,OVC004,0.00,VWS V14.01,2013-01-20 03:58:00,
2013-01-19 22:00:00,38.8,30.4,30.18,WSW,250,0.0,0.0,71,0.00,,OVC004,0.00,VWS V14.01,2013-01-20 04:00:00,
2013-01-19 22:02:00,38.8,30.4,30.18,WSW,250,0.0,0.0,71,0.00,,OVC004,0.00,VWS V14.01,2013-01-20 04:02:00,
2013-01-19 22:03:00,38.8,30.4,30.18,WSW,250,0.0,0.0,71,0.00,,CLR,0.00,VWS V14.01,2013-01-20 04:03:00,
2013-01-19 22:04:00,38.8,30.4,30.18,WSW,250,0.0,0.0,71,0.00,,OVC004,0.00,VWS V14.01,2013-01-20 04:04:00,
2013-01-19 22:06:00,38.8,30.4,30.18,WSW,250,0.0,0.0,71,0.00,,OVC004,0.00,VWS V14.01,2013-01-20 04:06:00,
2013-01-19 22:08:00,38.8,30.4,30.18,WSW,250,0.0,0.0,71,0.00,,CLR,0.00,VWS V14.01,2013-01-20 04:08:00,
2013-01-19 22:10:00,38.8,30.4,30.18,WSW,250,0.0,0.0,71,0.00,,OVC004,0.00,VWS V14.01,2013-01-20 04:10:00,
2013-01-19 22:12:00,38.7,30.2,30.18,WSW,250,0.0,0.0,71,0.00,,OVC004,0.00,VWS V14.01,2013-01-20 04:12:00,
2013-01-19 22:13:00,38.7,30.2,30.18,WSW,250,0.0,0.0,71,0.00,,CLR,0.00,VWS V14.01,2013-01-20 04:13:00,
2013-01-19 22:14:00,38.7,30.2,30.18,WSW,250,0.0,0.0,71,0.00,,OVC004,0.00,VWS V14.01,2013-01-20 04:14:00,
2013-01-19 22:16:00,38.7,30.6,30.18,WSW,250,0.0,0.0,73,0.00,,OVC004,0.00,VWS V14.01,2013-01-20 04:16:00,
2013-01-19 22:18:00,38.5,30.5,30.18,WSW,250,0.0,0.0,73,0.00,,CLR,0.00,VWS V14.01,2013-01-20 04:18:00,
2013-01-19 22:20:00,38.5,30.5,30.18,WSW,250,0.0,0.0,73,0.00,,OVC004,0.00,VWS V14.01,2013-01-20 04:20:00,
2013-01-19 22:22:00,38.3,30.3,30.18,WSW,250,0.0,0.0,73,0.00,,OVC004,0.00,VWS V14.01,2013-01-20 04:22:00,
2013-01-19 22:23:00,38.3,30.3,30.18,WSW,250,0.0,0.0,73,0.00,,CLR,0.00,VWS V14.01,2013-01-20 04:23:00,
2013-01-19 22:24:00,38.3,30.3,30.18,WSW,250,0.0,0.0,73,0.00,,OVC004,0.00,VWS V14.01,2013-01-20 04:24:00,
2013-01-19 22:26:00,38.1,30.1,30.18,WSW,250,0.0,0.0,73,0.00,,OVC004,0.00,VWS V14.01,2013-01-20 04:26:00,
2013-01-19 22:28:00,38.1,30.1,30.18,WSW,250,0.0,0.0,73,0.00,,CLR,0.00,VWS V14.01,2013-01-20 04:28:00,
2013-01-19 22:30:00,37.9,29.9,30.18,WSW,250,0.0,0.0,73,0.00,,OVC004,0.00,VWS V14.01,2013-01-20 04:30:00,
2013-01-19 22:32:00,37.9,29.9,30.18,WSW,250,0.0,0.0,73,0.00,,OVC004,0.00,VWS V14.01,2013-01-20 04:32:00,
2013-01-19 22:33:00,37.6,29.6,30.18,WSW,250,0.0,0.0,73,0.00,,CLR,0.00,VWS V14.01,2013-01-20 04:33:00,
2013-01-19 22:34:00,37.6,29.6,30.18,WSW,250,0.0,0.0,73,0.00,,OVC004,0.00,VWS V14.01,2013-01-20 04:34:00,
2013-01-19 22:36:00,37.4,29.4,30.18,WSW,250,0.0,0.0,73,0.00,,OVC004,0.00,VWS V14.01,2013-01-20 04:36:00,
2013-01-19 22:38:00,37.2,29.7,30.18,WSW,250,0.0,0.0,74,0.00,,CLR,0.00,VWS V14.01,2013-01-20 04:38:00,
2013-01-19 22:40:00,37.0,29.5,30.18,WSW,250,0.0,0.0,74,0.00,,OVC004,0.00,VWS V14.01,2013-01-20 04:40:00,
2013-01-19 22:42:00,37.0,29.5,30.18,WSW,250,0.0,0.0,74,0.00,,OVC004,0.00,VWS V14.01,2013-01-20 04:42:00,
2013-01-19 22:43:00,37.0,29.9,30.18,WSW,250,0.0,0.0,75,0.00,,CLR,0.00,VWS V14.01,2013-01-20 04:43:00,
2013-01-19 22:44:00,37.0,29.9,30.18,WSW,250,0.0,0.0,75,0.00,,OVC004,0.00,VWS V14.01,2013-01-20 04:44:00,
2013-01-19 22:46:00,37.0,29.9,30.18,WSW,250,0.0,0.0,75,0.00,,OVC004,0.00,VWS V14.01,2013-01-20 04:46:00,
2013-01-19 22:48:00,37.0,29.9,30.18,WSW,250,0.0,0.0,75,0.00,,CLR,0.00,VWS V14.01,2013-01-20 04:48:00,
2013-01-19 22:50:00,37.0,29.9,30.18,WSW,250,0.0,0.0,75,0.00,,OVC004,0.00,VWS V14.01,2013-01-20 04:50:00,
2013-01-19 22:52:00,36.9,29.8,30.18,WSW,250,0.0,0.0,75,0.00,,OVC004,0.00,VWS V14.01,2013-01-20 04:52:00,
2013-01-19 22:54:00,36.7,29.6,30.18,WSW,250,0.0,0.0,75,0.00,,CLR,0.00,VWS V14.01,2013-01-20 04:54:00,
2013-01-19 22:56:00,36.7,29.6,30.18,WSW,250,0.0,0.0,75,0.00,,OVC004,0.00,VWS V14.01,2013-01-20 04:56:00,
2013-01-19 22:58:00,36.3,29.2,30.18,WSW,250,0.0,0.0,75,0.00,,OVC004,0.00,VWS V14.01,2013-01-20 04:58:00,
2013-01-19 22:59:00,36.3,29.2,30.18,WSW,250,0.0,0.0,75,0.00,,CLR,0.00,VWS V14.01,2013-01-20 04:59:00,
2013-01-19 23:00:00,36.3,29.2,30.18,WSW,250,0.0,0.0,75,0.00,,CLR,0.00,VWS V14.01,2013-01-20 05:00:00,
2013-01-19 23:01:00,36.1,29.1,30.18,WSW,250,0.0,0.0,75,0.00,,CLR,0.00,VWS V14.01,2013-01-20 05:01:00,
2013-01-19 23:02:00,36.1,29.1,30.18,WSW,250,0.0,0.0,75,0.00,,CLR,0.00,VWS V14.01,2013-01-20 05:02:00,
2013-01-19 23:04:00,36.1,29.1,30.18,WSW,250,0.0,0.0,75,0.00,,OVC004,0.00,VWS V14.01,2013-01-20 05:04:00,
2013-01-19 23:06:00,36.0,29.3,30.18,WSW,250,0.0,0.0,77,0.00,,OVC004,0.00,VWS V14.01,2013-01-20 05:06:00,
2013-01-19 23:07:00,36.0,29.3,30.18,WSW,250,0.0,0.0,77,0.00,,CLR,0.00,VWS V14.01,2013-01-20 05:07:00,
2013-01-19 23:08:00,36.0,29.3,30.18,WSW,250,0.0,0.0,77,0.00,,OVC004,0.00,VWS V14.01,2013-01-20 05:08:00,
2013-01-19 23:10:00,35.8,29.1,30.18,WSW,250,0.0,0.0,77,0.00,,OVC004,0.00,VWS V14.01,2013-01-20 05:10:00,
2013-01-19 23:12:00,35.8,29.1,30.18,WSW,250,0.0,0.0,77,0.00,,CLR,0.00,VWS V14.01,2013-01-20 05:12:00,
2013-01-19 23:14:00,35.8,29.1,30.18,WSW,250,0.0,0.0,77,0.00,,OVC004,0.00,VWS V14.01,2013-01-20 05:14:00,
2013-01-19 23:16:00,35.8,29.1,30.18,WSW,250,0.0,0.0,77,0.00,,OVC004,0.00,VWS V14.01,2013-01-20 05:16:00,
2013-01-19 23:17:00,35.8,29.1,30.18,WSW,250,0.0,0.0,77,0.00,,CLR,0.00,VWS V14.01,2013-01-20 05:17:00,
2013-01-19 23:18:00,35.8,29.6,30.18,WSW,250,0.0,0.0,78,0.00,,OVC004,0.00,VWS V14.01,2013-01-20 05:18:00,
2013-01-19 23:20:00,35.8,29.6,30.18,WSW,250,0.0,0.0,78,0.00,,OVC004,0.00,VWS V14.01,2013-01-20 05:20:00,
2013-01-19 23:22:00,35.8,29.6,30.18,WSW,250,0.0,0.0,78,0.00,,CLR,0.00,VWS V14.01,2013-01-20 05:22:00,
2013-01-19 23:24:00,35.8,29.6,30.18,WSW,250,0.0,0.0,78,0.00,,OVC004,0.00,VWS V14.01,2013-01-20 05:24:00,
2013-01-19 23:26:00,36.0,29.7,30.18,WSW,250,0.0,0.0,78,0.00,,OVC004,0.00,VWS V14.01,2013-01-20 05:26:00,
2013-01-19 23:27:00,36.0,29.7,30.18,WSW,250,0.0,0.0,78,0.00,,CLR,0.00,VWS V14.01,2013-01-20 05:27:00,
2013-01-19 23:28:00,36.0,29.7,30.18,WSW,250,0.0,0.0,78,0.00,,OVC004,0.00,VWS V14.01,2013-01-20 05:28:00,
2013-01-19 23:30:00,36.0,29.7,30.18,WSW,250,0.0,0.0,78,0.00,,OVC004,0.00,VWS V14.01,2013-01-20 05:30:00,
2013-01-19 23:32:00,36.0,29.7,30.18,WSW,250,0.0,0.0,78,0.00,,CLR,0.00,VWS V14.01,2013-01-20 05:32:00,
2013-01-19 23:34:00,35.8,29.6,30.18,WSW,250,0.0,0.0,78,0.00,,OVC004,0.00,VWS V14.01,2013-01-20 05:34:00,
2013-01-19 23:36:00,35.8,30.0,30.18,WSW,250,0.0,0.0,79,0.00,,OVC004,0.00,VWS V14.01,2013-01-20 05:36:00,
2013-01-19 23:37:00,35.8,30.0,30.18,WSW,250,0.0,0.0,79,0.00,,CLR,0.00,VWS V14.01,2013-01-20 05:37:00,
2013-01-19 23:38:00,35.8,30.0,30.18,WSW,250,0.0,0.0,79,0.00,,OVC004,0.00,VWS V14.01,2013-01-20 05:38:00,
2013-01-19 23:40:00,35.8,30.0,30.18,WSW,250,0.0,0.0,79,0.00,,OVC004,0.00,VWS V14.01,2013-01-20 05:40:00,
2013-01-19 23:42:00,35.8,30.0,30.18,WSW,250,0.0,0.0,79,0.00,,CLR,0.00,VWS V14.01,2013-01-20 05:42:00,
2013-01-19 23:44:00,35.8,30.0,30.18,WSW,250,0.0,0.0,79,0.00,,OVC004,0.00,VWS V14.01,2013-01-20 05:44:00,
2013-01-19 23:46:00,35.8,30.4,30.18,WSW,250,0.0,0.0,81,0.00,,OVC004,0.00,VWS V14.01,2013-01-20 05:46:00,
2013-01-19 23:47:00,35.8,30.4,30.18,WSW,250,0.0,0.0,81,0.00,,CLR,0.00,VWS V14.01,2013-01-20 05:47:00,
2013-01-19 23:48:00,35.8,30.4,30.18,WSW,250,0.0,0.0,81,0.00,,OVC004,0.00,VWS V14.01,2013-01-20 05:48:00,
2013-01-19 23:50:00,35.8,30.4,30.18,WSW,250,0.0,0.0,81,0.00,,OVC004,0.00,VWS V14.01,2013-01-20 05:50:00,
2013-01-19 23:52:00,35.8,30.4,30.18,WSW,250,0.0,0.0,81,0.00,,CLR,0.00,VWS V14.01,2013-01-20 05:52:00,
2013-01-19 23:54:00,36.0,30.6,30.18,WSW,250,0.0,0.0,81,0.00,,OVC004,0.00,VWS V14.01,2013-01-20 05:54:00,
2013-01-19 23:56:00,36.0,30.6,30.18,WSW,250,0.0,0.0,81,0.00,,OVC004,0.00,VWS V14.01,2013-01-20 05:56:00,
2013-01-19 23:57:00,36.0,30.6,30.18,WSW,250,0.0,0.0,81,0.00,,CLR,0.00,VWS V14.01,2013-01-20 05:57:00,
2013-01-19 23:58:00,36.0,30.6,30.18,WSW,250,0.0,0.0,81,0.00,,OVC004,0.00,VWS V14.01,2013-01-20 05:58:00,